GFSSW_sfc_wetblb_000.txt.gz
Wetbulb
58.46 58.45 58.64 58.74 58.87 59.23 59.58 59.82 59.91 60.15 60.40 60.78 60.97 60.95 61.17 61.33 60.72 53.79 49.38 55.09 57.61 63.69 60.07 53.11 51.62 50.67 49.67 48.52 48.39 45.50 37.32 34.70 37.47 38.77 40.80 41.98 41.15 42.55 42.38 41.12 42.58 45.37 42.53 42.75 43.82
58.24 58.13 58.14 58.19 58.31 58.68 59.04 59.22 59.18 59.41 59.95 60.38 60.68 60.76 60.80 60.93 53.88 50.77 58.88 65.39 64.84 63.98 53.22 50.02 47.80 48.51 45.63 46.70 46.64 43.08 36.47 38.46 42.22 42.96 40.75 42.31 42.31 42.18 40.45 40.74 40.50 42.21 42.18 42.20 42.73
58.06 57.86 57.78 57.71 57.82 58.23 58.57 58.66 58.63 58.86 59.36 59.80 60.18 60.35 60.40 59.11 49.27 50.26 63.62 65.81 64.59 62.47 53.34 51.46 49.65 48.61 43.96 44.85 44.93 42.91 39.15 42.41 44.78 44.61 43.88 42.75 40.90 43.15 41.05 40.68 42.05 42.86 43.78 41.97 40.81
58.06 57.57 57.34 57.26 57.35 57.75 58.10 58.17 58.24 58.38 58.70 59.17 59.72 59.94 60.05 54.52 38.25 51.61 62.75 64.33 63.94 54.94 52.03 49.33 47.54 44.65 43.02 42.45 46.05 40.48 44.11 44.22 46.19 46.19 43.24 42.17 42.35 41.56 41.66 46.45 45.56 44.85 42.95 41.47 40.72
58.28 57.38 56.90 56.83 56.99 57.33 57.68 57.80 57.91 58.17 58.30 58.54 59.06 59.65 53.85 45.88 47.27 55.34 61.34 61.09 55.95 52.99 49.31 48.06 46.30 45.21 42.00 42.91 43.47 42.49 43.55 45.55 45.91 45.43 43.69 43.66 43.37 42.43 42.69 44.65 44.67 44.88 43.71 41.84 42.70
57.85 57.35 57.03 56.71 56.72 57.00 57.20 57.37 57.65 57.99 58.14 58.19 58.50 58.34 47.64 39.89 50.82 54.31 52.71 53.09 51.55 49.07 47.86 47.94 46.64 46.85 43.76 43.34 42.45 42.00 43.67 43.69 44.07 44.73 44.07 43.55 42.14 42.89 46.26 43.66 44.13 44.26 44.13 41.90 42.57
58.01 57.31 56.98 57.06 56.83 56.80 56.95 57.08 57.31 57.44 57.71 58.11 58.39 57.11 48.61 44.55 50.91 51.19 51.01 49.53 49.30 48.35 46.77 47.14 47.54 46.36 43.24 41.91 44.57 42.37 40.85 40.90 42.93 42.40 42.25 42.18 39.89 39.85 46.99 42.41 43.54 42.93 42.71 42.85 42.47
58.13 57.40 56.98 57.04 57.24 57.36 57.46 57.60 57.69 57.58 57.46 57.96 58.65 52.53 42.42 51.01 48.58 49.18 48.77 47.62 47.99 47.99 47.56 47.29 47.32 45.67 43.40 44.09 41.95 37.76 37.85 34.54 40.05 40.76 41.64 41.81 37.45 42.61 44.90 42.13 43.35 43.18 42.30 41.91 43.47
57.86 57.38 56.96 57.00 57.05 57.11 57.41 57.45 57.39 57.45 57.58 58.16 51.58 46.77 42.58 53.57 47.78 49.61 48.88 46.83 46.88 47.32 46.95 49.89 46.95 42.69 41.56 37.74 34.84 33.17 31.39 32.27 37.07 41.76 40.44 39.01 37.69 42.60 42.18 41.30 41.59 42.74 41.74 42.55 43.92
57.83 57.38 56.96 57.00 57.06 57.15 57.40 57.57 56.27 55.22 55.82 56.52 53.64 43.45 46.03 45.57 48.79 48.30 46.85 48.17 45.59 45.62 44.88 44.44 41.51 38.18 36.91 34.88 30.64 31.53 30.34 33.20 34.46 38.00 37.84 36.52 37.93 43.02 43.70 40.56 40.10 41.14 40.07 39.81 41.54
57.92 57.51 57.22 57.15 57.37 57.68 54.92 49.18 43.68 41.95 46.01 41.48 42.75 42.86 45.03 48.02 48.90 46.95 47.67 46.90 46.23 42.39 37.91 39.74 35.89 34.32 39.25 37.87 39.72 33.22 32.67 32.90 36.13 40.12 37.56 37.26 38.74 41.67 44.62 41.93 39.25 41.51 43.64 44.99 45.21
57.96 57.61 57.32 57.24 57.33 57.21 49.90 46.36 44.55 44.62 39.01 44.56 44.38 44.89 46.98 47.56 43.51 45.95 48.00 43.61 42.14 37.70 38.59 36.05 33.85 39.94 40.71 38.26 37.66 36.62 35.41 35.25 38.45 39.86 36.16 37.66 37.60 41.07 41.34 43.40 44.23 43.95 44.10 43.97 45.02
57.64 57.23 56.82 56.73 56.72 50.96 45.91 44.65 48.30 47.09 37.98 40.98 43.30 42.08 42.98 46.75 42.76 43.31 45.89 42.41 38.85 36.48 37.54 37.80 38.89 41.42 39.38 36.96 35.71 36.00 34.68 35.71 35.40 36.28 35.06 33.65 34.81 34.94 39.08 41.22 43.31 42.29 43.99 45.49 46.17
57.55 57.03 56.39 55.97 51.16 47.78 44.64 47.37 48.13 46.34 30.48 35.93 39.76 41.89 43.80 43.91 39.01 42.02 43.10 42.08 38.59 37.48 36.44 36.08 40.83 39.64 36.86 36.15 38.25 35.47 37.97 37.46 34.52 31.42 30.42 33.13 29.83 33.11 36.73 38.30 40.03 41.32 42.22 43.15 44.20
57.22 56.99 56.26 55.19 48.33 46.77 48.35 49.00 47.12 41.77 24.46 38.15 39.22 45.73 43.56 38.93 38.38 38.66 39.93 40.33 35.57 36.39 36.39 35.52 35.77 35.72 35.16 38.35 38.23 37.68 36.54 34.97 32.35 29.87 28.67 28.88 27.56 31.79 35.85 34.75 38.14 41.88 42.16 43.21 44.36
56.78 56.71 55.84 52.82 49.28 49.76 49.46 47.54 43.90 32.94 24.75 35.66 38.46 37.54 37.14 38.53 37.90 37.89 37.67 39.24 37.50 34.87 34.74 35.73 35.97 36.64 37.02 36.39 36.80 36.25 34.91 32.55 29.67 28.85 26.19 30.88 30.49 31.46 31.57 35.58 37.01 40.58 42.29 42.85 44.28
57.13 56.47 54.52 53.68 48.96 50.43 48.86 46.42 40.05 29.62 37.89 35.93 34.82 36.69 35.44 34.67 36.05 35.10 33.78 32.84 32.83 29.03 28.36 32.00 33.65 34.31 37.55 33.87 33.89 34.75 32.21 24.07 21.27 19.63 24.00 31.11 26.42 35.98 35.83 40.06 39.05 40.84 42.19 43.08 43.19
55.51 56.75 54.63 54.48 51.40 51.22 50.14 44.05 34.33 38.82 35.90 40.24 39.94 36.33 35.38 36.82 36.63 34.47 31.71 30.25 32.86 32.09 28.49 28.27 30.17 33.99 36.10 36.27 33.22 32.77 33.88 28.49 19.19 22.08 29.68 25.21 25.36 33.90 38.55 40.44 40.46 40.60 40.94 39.82 39.10
55.42 55.42 53.89 54.58 51.43 51.68 46.19 36.62 37.97 39.09 42.73 41.50 42.38 38.38 34.95 35.01 36.97 34.16 31.32 30.98 33.97 35.26 32.53 29.37 31.13 34.53 35.06 35.16 37.12 29.85 28.78 35.73 27.55 15.34 19.08 30.66 32.95 37.55 36.58 38.66 38.21 38.79 38.88 38.70 38.02
53.02 52.99 52.35 54.00 52.63 49.96 42.15 39.66 40.50 41.96 43.45 43.38 38.20 39.87 34.90 34.73 36.71 34.10 33.09 34.72 35.25 35.86 38.01 33.72 30.71 35.31 32.05 33.84 33.24 34.28 35.39 27.52 26.33 21.27 18.30 26.04 28.18 33.30 36.18 37.25 36.86 38.05 38.65 38.61 37.66
51.48 47.81 50.83 52.52 51.75 44.89 37.28 39.04 41.86 43.94 44.34 41.95 40.13 39.72 37.57 37.76 39.03 36.50 36.41 36.75 38.89 35.99 38.29 36.57 34.02 32.54 31.15 30.81 32.08 30.83 30.91 31.29 31.40 29.29 27.10 25.69 30.16 34.69 35.20 33.55 35.71 38.19 40.00 37.33 37.39
48.09 41.09 50.99 52.09 41.91 42.04 39.13 40.91 43.16 42.56 44.45 43.38 42.46 41.11 39.90 39.84 38.83 39.76 38.89 40.49 42.71 40.24 37.52 38.59 35.44 31.11 33.65 35.83 33.88 33.18 34.09 35.18 29.66 26.95 26.79 27.32 29.65 41.68 41.76 41.32 41.66 41.03 40.12 38.37 37.76
43.68 42.94 50.47 50.14 37.48 39.24 41.03 40.98 42.50 41.25 41.41 41.72 40.97 42.11 42.23 39.31 36.42 39.33 40.00 43.82 44.45 43.06 40.29 40.45 34.79 29.86 30.79 34.57 35.55 30.28 32.77 34.09 33.82 30.04 29.63 26.22 28.74 42.14 42.33 41.28 42.54 41.02 42.06 39.37 38.67
40.61 36.59 43.14 44.84 44.59 40.53 38.66 39.14 38.60 42.65 41.94 42.71 41.13 41.86 39.03 37.33 39.50 37.32 37.65 40.78 42.58 42.25 43.93 42.47 36.81 32.98 28.09 32.06 34.31 31.69 31.68 31.97 32.51 28.72 29.52 29.69 32.18 37.19 39.55 40.55 42.39 42.69 42.94 38.53 40.54
36.35 33.87 39.40 34.33 37.83 39.57 39.83 38.73 36.66 35.94 40.56 41.39 38.93 38.94 37.67 34.46 35.20 35.05 37.63 37.52 39.23 41.45 41.43 39.73 33.50 35.15 35.42 36.62 36.46 35.87 35.19 35.66 33.43 34.72 30.39 33.14 33.39 36.94 39.76 41.10 42.54 44.07 44.35 42.28 38.88
32.66 32.66 36.23 35.24 35.58 36.72 37.01 34.80 35.37 36.43 36.86 35.89 35.71 37.62 37.45 33.77 34.04 32.32 33.54 33.03 33.24 36.06 34.52 36.52 32.30 34.89 32.66 35.10 33.67 32.34 34.83 35.50 34.86 35.06 34.82 34.94 34.13 41.41 42.76 43.31 42.37 43.05 43.54 43.20 42.25
34.88 35.99 35.84 30.20 29.13 27.07 30.28 32.01 33.41 34.33 36.41 37.78 35.68 31.61 31.61 32.92 33.92 33.91 34.99 34.80 34.63 32.69 31.53 32.22 31.23 30.29 27.35 31.31 30.12 26.68 32.92 33.78 34.62 36.17 35.71 31.21 35.92 35.49 34.24 36.40 40.12 40.40 35.32 35.57 36.62

GFSSW_sfc_wetblb_003.txt.gz
Wetbulb
58.66 58.56 58.63 58.66 58.68 59.05 59.42 59.55 59.47 59.42 59.67 60.10 60.49 60.55 60.64 60.88 60.40 52.78 48.27 54.42 56.24 63.69 58.72 51.69 50.73 49.44 48.54 47.13 46.81 43.07 36.24 33.36 35.87 36.96 39.68 40.74 39.79 41.41 41.26 41.19 41.15 43.82 41.52 41.70 42.12
58.40 58.18 58.20 58.23 58.19 58.45 58.81 59.05 58.97 59.08 59.32 59.62 60.00 60.21 60.28 60.32 53.10 49.25 57.49 63.83 64.93 63.88 51.94 49.80 47.12 47.61 44.93 45.34 45.56 42.17 34.50 36.68 39.68 39.94 41.32 40.91 40.91 41.07 40.81 39.84 39.26 41.37 41.75 40.91 41.52
58.20 57.88 57.84 57.97 57.95 58.14 58.37 58.53 58.49 58.67 58.96 59.06 59.41 59.74 59.81 58.28 47.36 46.62 62.16 65.39 65.68 61.23 52.51 50.02 48.48 47.58 42.69 43.28 43.92 41.73 38.52 40.78 43.47 44.17 42.96 41.85 39.93 42.14 39.31 40.03 41.16 42.31 43.87 41.31 40.45
58.12 57.64 57.51 57.56 57.79 57.84 58.06 58.07 58.12 58.28 58.63 58.82 58.97 59.22 58.87 53.35 37.98 47.72 63.33 65.52 64.59 54.92 51.10 48.62 46.11 43.56 41.88 41.84 44.56 40.35 43.04 42.59 44.21 44.75 42.82 41.45 41.65 40.75 41.03 46.02 44.73 44.29 43.10 41.09 40.27
58.16 57.77 57.47 57.39 57.60 57.85 57.85 57.81 57.84 57.92 58.16 58.52 58.66 59.07 52.51 43.67 45.88 54.21 62.67 62.65 55.77 51.41 48.92 46.88 44.81 44.17 41.25 41.56 42.03 40.98 42.49 44.69 44.66 44.10 43.38 43.26 42.54 41.59 41.64 45.51 43.76 43.82 42.88 41.61 41.30
58.20 57.69 57.62 57.68 57.58 57.74 57.75 57.75 57.79 57.91 57.79 58.03 58.32 57.86 46.60 38.83 48.74 54.68 53.47 53.37 50.26 48.40 46.45 46.46 45.09 45.73 41.92 42.19 42.01 41.23 42.29 43.09 42.96 43.20 43.35 43.08 44.50 41.48 45.00 43.63 44.22 42.47 42.54 41.25 41.08
58.68 58.12 57.75 57.85 58.02 57.92 57.92 58.06 57.84 57.96 57.69 57.88 57.88 56.17 46.22 43.92 49.33 51.85 51.05 49.29 49.07 47.37 44.75 45.08 45.15 43.92 41.84 40.03 42.79 41.25 39.86 39.83 40.05 40.88 41.86 41.78 39.83 38.58 45.94 41.86 43.09 41.69 41.77 42.03 41.42
58.68 58.01 57.75 57.71 57.74 57.89 58.03 58.14 58.18 58.07 57.91 57.88 57.40 51.15 40.55 49.29 48.06 48.60 47.93 46.37 47.09 46.85 46.13 45.72 46.25 44.36 41.50 42.58 41.06 36.93 36.17 33.32 38.49 39.20 39.84 40.50 35.72 43.40 43.36 41.01 42.37 42.65 41.89 41.56 42.77
58.31 57.72 57.67 57.54 57.37 57.44 57.82 58.04 57.94 57.36 57.13 57.69 51.03 44.72 40.82 52.01 46.92 48.28 47.65 46.38 46.21 45.94 45.47 49.29 45.44 41.86 39.90 36.16 34.08 31.90 30.31 31.35 35.53 40.40 39.60 38.51 35.91 41.95 41.39 40.53 41.00 41.23 42.02 42.91 43.64
57.95 57.64 57.49 57.45 57.35 57.48 57.79 57.75 56.33 55.20 56.04 55.74 52.08 41.25 42.09 44.00 47.62 47.59 45.84 47.00 44.56 44.13 43.29 42.80 39.75 37.18 34.75 33.67 29.56 30.54 28.68 31.55 31.92 38.26 36.05 35.19 36.29 40.86 43.25 39.49 40.32 42.18 42.81 44.22 45.12
57.91 57.69 57.58 57.51 57.59 57.95 54.11 47.88 43.40 40.97 45.54 41.71 42.79 40.65 43.18 46.08 48.22 45.26 46.79 46.23 44.27 41.11 37.16 38.22 34.92 33.32 38.02 37.00 38.91 32.48 31.75 31.34 35.10 38.70 34.60 35.86 37.80 39.99 43.04 42.48 43.43 43.61 42.35 44.16 44.81
58.03 57.72 57.59 57.38 57.52 56.74 47.69 44.77 42.25 43.15 38.11 43.72 43.42 43.89 45.17 46.05 42.40 44.43 46.71 42.53 40.54 36.95 36.73 34.48 32.83 39.35 38.75 37.19 35.65 34.40 33.74 33.88 38.07 39.69 34.35 36.54 36.67 39.05 39.58 41.71 43.26 44.29 44.38 44.85 44.98
57.93 57.32 57.02 56.87 56.58 49.76 44.02 43.17 47.32 45.48 36.61 40.00 42.30 41.26 42.13 45.03 42.00 42.31 45.18 41.47 38.45 35.55 35.94 37.02 37.79 39.92 37.85 35.64 34.19 34.15 32.91 35.04 34.56 35.29 34.30 32.91 34.76 36.44 37.41 38.64 41.79 43.25 44.22 44.43 44.12
58.02 57.35 56.58 56.20 51.48 47.29 44.62 46.76 47.37 45.14 31.59 35.37 38.49 40.45 42.61 42.34 37.82 40.98 41.38 40.89 37.15 36.70 35.21 35.18 39.32 38.27 34.89 34.08 36.34 34.41 36.48 36.42 34.16 29.98 29.28 32.26 28.96 31.95 37.49 39.39 40.08 41.00 42.26 41.78 43.14
57.76 57.47 56.62 55.40 48.61 46.78 47.24 48.15 46.71 40.49 28.16 38.94 38.15 44.25 42.26 37.91 37.05 37.83 39.38 39.55 35.27 35.76 34.31 34.30 33.55 33.28 33.72 36.96 36.47 35.49 36.10 33.76 30.65 28.62 27.80 28.16 25.38 31.03 34.36 35.52 36.96 39.40 40.45 42.05 43.19
57.43 56.95 56.24 52.88 49.37 48.91 48.19 47.26 42.22 34.60 28.07 35.95 37.51 36.54 36.15 37.20 36.79 37.06 37.19 38.48 37.07 33.82 33.72 35.22 35.15 36.44 36.24 35.38 36.41 35.44 33.08 30.89 28.39 28.33 24.02 29.73 28.89 33.73 31.85 35.36 35.70 38.27 40.48 41.32 41.57
56.08 56.93 54.74 53.56 49.95 50.43 47.89 46.05 39.16 32.07 39.44 35.83 34.16 35.68 34.23 33.42 35.22 34.51 33.68 32.83 33.17 29.42 28.74 31.03 32.31 33.39 36.84 33.27 32.51 33.15 30.02 23.16 20.63 19.19 23.29 29.06 26.32 35.98 36.19 37.52 38.28 41.23 39.02 39.94 39.84
53.76 55.89 54.79 54.08 51.52 50.46 50.19 43.97 34.53 38.55 36.19 39.64 38.57 35.56 36.52 36.35 37.60 35.20 31.34 31.08 32.39 30.18 27.32 27.87 30.32 32.92 35.25 35.29 32.49 31.09 31.68 24.84 17.49 20.55 28.10 25.21 24.24 35.56 38.43 39.19 37.94 38.18 38.74 38.35 39.19
53.32 55.81 53.91 54.82 51.21 51.99 47.54 37.72 34.93 39.24 41.38 40.64 40.49 36.35 34.94 34.53 35.60 32.95 30.22 30.68 34.23 34.74 32.04 27.07 28.52 31.98 33.83 34.53 36.83 30.19 28.18 34.03 27.54 23.28 23.52 30.11 32.24 37.50 36.77 37.14 35.78 36.95 36.40 37.91 38.13
48.52 53.42 52.73 54.75 52.82 51.04 43.39 38.75 39.52 42.54 42.65 42.08 37.35 39.75 34.48 32.31 36.98 34.36 33.22 33.43 33.97 34.96 36.59 33.77 28.53 33.47 31.47 32.53 33.34 33.82 34.53 26.42 25.21 19.00 19.36 25.88 29.49 32.48 36.53 39.64 36.62 36.69 36.45 38.40 39.16
49.05 46.40 49.96 52.22 52.42 45.76 37.20 39.11 41.49 43.85 44.50 41.87 40.08 39.16 37.73 37.60 38.90 38.09 38.22 36.73 36.91 35.54 36.87 35.76 34.00 33.05 32.31 30.80 34.17 28.84 28.69 29.70 30.33 27.99 25.35 24.39 29.13 40.18 39.64 35.45 35.17 38.30 39.82 39.87 37.89
46.93 39.66 50.81 52.27 42.13 42.71 39.56 41.11 43.22 42.73 43.60 43.78 42.70 41.26 39.85 39.29 37.87 38.21 37.58 39.22 43.14 40.94 37.40 38.43 35.87 31.65 33.45 34.52 34.87 33.53 32.27 31.88 26.36 26.65 28.19 29.44 30.60 41.40 42.22 38.56 39.40 41.23 43.25 41.98 38.71
40.75 40.58 50.63 49.89 37.70 39.25 40.99 41.26 42.74 41.50 41.20 41.59 40.81 41.48 41.50 38.55 35.10 38.05 38.87 43.07 43.79 42.47 39.72 38.71 33.96 29.87 30.41 32.19 32.48 32.40 35.12 35.09 34.93 32.07 26.94 24.66 28.84 41.12 41.97 41.83 42.41 40.70 39.20 39.96 40.00
39.30 33.59 42.55 44.78 43.89 39.73 37.72 37.88 38.37 42.97 41.84 42.91 41.29 41.00 38.60 36.99 39.21 36.32 36.38 38.77 40.20 40.47 42.46 41.41 36.37 33.53 28.75 30.18 34.30 32.07 33.05 34.57 33.17 28.28 28.54 29.39 31.78 36.55 39.16 40.05 41.84 41.77 40.55 38.35 35.47
36.19 33.53 37.10 32.23 36.63 37.36 38.20 36.40 34.50 35.04 41.11 42.16 39.09 39.22 37.75 34.16 34.80 34.17 36.32 35.66 36.68 38.35 37.34 37.90 31.75 33.06 33.81 34.97 34.97 34.14 33.42 34.29 32.90 33.14 28.78 31.99 32.73 36.72 39.44 34.40 31.42 34.36 32.77 31.56 31.43
32.49 31.60 35.55 32.14 34.38 34.30 35.31 33.39 33.52 34.80 36.43 35.25 34.89 36.69 36.09 34.04 35.24 31.73 31.19 32.13 31.88 33.36 32.38 34.86 27.74 30.67 28.72 30.58 31.07 30.38 32.61 32.21 31.88 30.49 30.30 30.80 30.86 26.21 26.39 26.93 26.94 27.99 27.74 27.71 29.12
33.64 34.70 35.09 29.61 28.66 29.46 29.58 32.45 32.68 32.83 34.90 35.59 33.36 32.48 32.64 33.35 31.93 31.73 32.11 32.19 32.53 30.10 27.62 28.86 27.83 25.54 21.31 26.42 25.85 21.15 26.33 28.78 30.78 30.70 29.10 24.86 21.60 25.06 23.40 23.55 24.49 26.47 27.37 27.94 29.60

GFSSW_sfc_wetblb_006.txt.gz
Wetbulb
58.80 58.64 58.73 58.88 58.83 59.01 59.26 59.42 59.38 59.37 59.48 59.68 60.04 60.21 60.33 60.42 59.87 51.66 46.71 53.69 55.11 63.76 58.10 51.10 49.84 48.16 47.71 46.29 45.35 41.61 36.06 32.14 34.91 35.14 38.48 40.27 38.76 42.81 41.04 41.00 39.82 43.24 41.86 42.64 41.29
58.50 58.33 58.45 58.56 58.68 58.67 58.82 58.92 58.86 58.95 59.20 59.42 59.51 59.79 60.02 60.00 52.26 48.37 56.48 62.60 64.78 63.05 50.86 49.06 46.63 46.83 44.23 44.10 44.41 41.56 33.98 36.05 38.37 37.73 39.31 40.07 40.20 41.27 42.24 40.34 38.90 40.73 42.29 40.33 40.87
58.36 58.19 58.26 58.36 58.50 58.62 58.48 58.34 58.26 58.43 58.71 59.00 59.27 59.37 59.51 57.65 44.97 44.87 62.19 64.14 65.69 60.86 51.22 48.73 47.67 46.78 41.84 43.84 43.20 40.44 38.20 39.23 41.59 42.14 41.96 41.25 39.65 41.10 39.24 40.15 41.03 41.94 43.31 41.27 40.23
58.28 58.16 58.09 58.20 58.32 58.54 58.53 58.29 58.13 58.08 58.29 58.44 58.79 58.93 58.83 51.64 37.87 46.01 63.81 65.36 64.98 52.38 49.93 47.51 45.46 42.66 40.85 40.89 43.34 39.55 42.14 41.91 42.72 43.37 41.62 41.20 41.56 40.23 40.91 46.44 45.12 44.14 43.54 40.51 40.56
58.57 58.39 58.31 58.12 58.32 58.48 58.48 58.34 58.49 58.28 58.05 58.16 58.33 58.57 51.11 41.31 44.56 54.07 63.14 62.95 53.57 50.30 48.15 45.97 43.74 42.33 39.59 40.20 40.55 39.52 41.24 43.53 43.80 42.29 42.98 42.38 42.94 41.53 40.36 44.79 43.98 43.37 42.33 41.79 40.93
58.87 58.54 58.44 58.45 58.51 58.51 58.40 58.39 58.47 58.47 58.08 57.93 58.00 57.77 45.01 38.25 47.52 55.50 55.76 52.69 50.38 48.07 45.92 45.72 44.27 44.74 41.11 40.75 40.89 39.72 40.84 41.44 41.48 42.33 42.36 42.22 44.00 41.19 43.48 42.22 43.86 41.65 42.33 41.29 40.52
59.11 58.69 58.39 58.42 58.73 58.54 58.48 58.55 58.42 58.42 58.17 58.17 57.69 55.28 44.46 43.36 48.53 52.13 52.08 49.34 48.73 47.66 44.84 44.93 44.85 42.91 40.98 38.65 40.77 40.32 38.92 38.78 38.77 39.72 39.97 40.47 39.05 37.80 44.99 41.28 42.72 41.68 40.87 40.96 40.97
58.99 58.40 58.10 58.13 58.22 58.25 58.31 58.49 58.59 58.52 58.29 58.25 57.39 49.86 39.88 47.76 47.99 48.57 47.89 45.65 46.22 45.78 45.42 45.14 45.53 43.80 40.74 40.81 39.56 35.26 35.15 32.55 36.85 37.57 38.75 39.87 33.96 41.71 41.38 38.78 40.63 41.22 41.46 41.26 42.64
58.35 57.84 57.82 57.93 57.77 57.71 58.01 58.15 57.55 57.94 57.40 57.33 50.09 43.19 39.96 50.99 46.04 47.29 46.82 45.32 45.41 44.80 44.63 48.38 44.51 40.45 38.86 34.92 32.96 31.07 29.64 30.25 34.22 39.09 38.03 37.17 34.67 40.53 39.65 39.14 40.06 40.68 41.62 41.95 44.96
57.98 57.69 57.73 57.75 57.62 57.66 57.78 56.59 56.22 55.18 55.67 55.58 51.06 40.14 42.80 42.17 45.98 46.01 45.15 46.30 43.79 43.67 42.68 41.78 38.83 36.27 33.85 33.11 29.00 29.88 27.76 29.97 30.58 37.19 34.73 34.04 35.36 40.05 41.63 39.84 39.72 41.18 43.10 44.05 44.50
58.10 57.87 57.86 57.75 57.80 57.98 51.53 45.99 42.12 40.11 44.49 42.12 41.95 40.15 41.18 45.02 47.05 44.81 46.13 45.54 43.11 40.21 36.80 37.01 34.10 32.82 37.07 35.83 36.99 30.76 30.29 30.21 33.49 37.65 33.22 36.94 37.54 39.17 40.91 39.43 41.81 43.00 42.94 43.31 44.48
58.50 58.12 57.92 57.61 57.68 55.68 46.22 43.34 41.65 42.87 37.86 43.01 42.70 43.70 44.37 44.93 41.79 43.21 45.67 42.51 40.04 36.50 35.84 33.86 31.59 38.31 36.82 35.27 34.59 32.55 32.16 33.29 36.48 38.18 33.54 34.71 35.50 39.06 40.53 41.34 41.98 42.73 43.56 43.70 43.86
58.47 57.88 57.46 57.09 56.56 49.80 44.10 42.37 46.96 45.49 36.04 39.89 41.53 40.80 41.68 44.16 40.90 41.39 43.89 40.26 37.75 34.95 34.83 34.97 37.43 38.43 36.46 33.49 33.70 31.21 30.45 33.63 32.66 33.87 32.93 31.33 32.93 33.36 37.55 37.84 40.92 41.60 43.11 41.17 41.48
58.67 58.14 57.25 56.46 51.81 47.15 44.65 46.15 47.10 43.87 34.15 36.93 37.64 39.76 41.63 41.06 36.49 40.16 41.06 39.64 36.20 36.28 34.07 33.83 37.11 36.88 32.76 33.36 34.56 32.78 35.66 34.95 33.37 29.51 27.70 31.20 27.35 31.36 35.86 37.25 38.03 40.26 38.61 39.33 40.54
57.85 57.95 57.58 55.69 49.37 47.59 47.00 47.40 45.28 39.59 28.86 39.03 37.06 43.21 41.23 37.70 36.36 36.87 39.01 38.47 34.95 35.05 33.70 33.58 32.30 31.90 32.26 34.80 35.03 33.99 34.78 32.84 30.22 28.32 26.23 26.23 24.57 30.20 32.20 33.95 37.04 38.46 39.33 38.84 39.43
56.67 57.31 56.45 53.38 50.39 49.85 48.46 46.99 42.10 35.59 30.46 36.72 36.60 35.82 35.55 36.53 35.91 36.36 36.83 37.59 36.20 33.35 32.27 34.22 33.94 35.46 35.78 35.30 35.76 34.33 31.61 29.86 28.03 27.47 22.89 28.75 27.55 33.75 30.64 33.01 35.45 38.69 42.84 39.72 39.85
53.84 55.46 54.84 53.81 50.76 49.80 48.33 47.84 40.20 33.74 39.85 35.69 33.43 34.74 33.49 33.57 34.53 34.22 33.79 32.74 32.82 29.91 28.73 30.74 32.05 33.42 35.30 31.80 31.85 31.83 28.87 22.30 19.97 18.94 22.53 26.98 25.10 34.33 36.93 39.23 37.77 38.40 38.57 38.87 38.69
52.10 54.30 54.80 54.18 52.07 49.75 50.31 44.62 33.40 36.82 36.94 38.82 37.03 36.20 35.72 35.89 36.63 33.44 30.84 30.81 32.48 30.62 27.62 28.51 32.01 32.16 33.75 34.77 32.61 30.07 31.45 23.92 19.67 17.71 26.83 24.00 24.39 35.47 37.77 38.76 38.85 37.06 37.54 36.45 37.84
51.87 54.55 54.22 54.84 51.53 52.32 47.98 37.93 35.80 36.36 39.90 39.22 39.79 35.24 34.04 34.61 36.62 31.27 30.01 30.76 34.66 33.65 33.28 27.58 29.75 31.69 33.29 33.36 34.33 28.93 28.10 33.22 27.64 28.31 22.61 29.83 31.47 36.93 39.01 35.77 35.91 34.15 35.37 36.22 37.99
45.77 50.76 50.35 54.56 52.36 50.87 43.49 38.69 37.64 41.48 41.71 41.18 37.31 39.41 33.75 32.68 33.03 32.18 32.02 33.03 33.71 34.42 35.59 34.59 29.75 33.06 32.04 32.68 33.11 32.73 33.35 26.20 25.46 20.84 18.91 24.95 28.18 30.90 36.62 39.47 37.52 36.40 36.06 37.36 37.59
45.38 44.20 47.90 51.60 52.51 45.74 37.70 38.77 41.58 44.51 44.30 41.06 39.46 39.18 38.14 37.64 37.15 37.36 38.30 38.01 35.62 34.57 34.68 34.79 33.05 31.64 32.22 30.39 32.21 30.80 28.64 28.69 29.42 28.35 24.45 23.27 28.58 36.95 38.97 40.12 36.01 35.75 38.69 38.79 35.97
43.77 36.81 49.71 52.39 41.58 42.32 38.43 40.87 42.64 42.30 43.59 41.67 42.40 40.88 38.88 39.11 37.41 36.96 36.79 39.33 40.65 39.54 34.89 35.64 36.95 31.78 32.90 35.45 34.69 33.25 34.15 33.20 28.17 26.09 27.52 27.91 28.09 39.67 39.34 41.03 36.79 33.43 33.34 34.43 34.06
39.83 39.04 50.31 49.94 34.96 36.81 40.08 40.47 42.10 40.80 40.97 41.08 39.97 40.98 41.53 38.31 35.28 38.32 38.48 41.26 42.15 40.93 39.06 39.75 34.42 28.24 29.28 31.29 32.85 31.66 34.45 35.21 35.04 32.32 28.73 25.74 27.36 39.80 39.72 34.28 32.20 29.60 29.06 30.11 31.23
38.59 30.25 41.10 43.91 41.68 38.56 35.80 35.78 36.32 41.02 41.09 41.73 40.52 41.33 38.92 36.78 38.55 36.32 36.90 38.32 37.82 38.94 41.13 40.20 34.31 31.56 26.62 28.90 33.33 31.95 33.34 34.55 33.57 29.10 28.44 28.63 30.23 35.42 28.53 26.91 26.34 28.41 27.54 28.33 29.38
32.66 30.65 34.75 28.97 34.01 35.98 37.02 35.83 33.54 33.24 37.21 39.31 37.84 37.43 36.20 33.67 34.88 34.54 36.64 36.71 35.45 37.15 36.03 36.79 30.72 32.40 32.83 34.40 33.26 31.65 30.12 30.04 28.90 30.49 26.92 28.87 29.75 30.62 23.58 24.14 25.63 27.95 27.77 27.68 28.49
28.79 29.45 32.12 29.55 30.91 31.30 32.80 31.48 32.45 33.67 34.34 33.58 32.99 34.53 34.52 32.20 33.32 31.63 33.50 31.54 31.13 32.51 32.09 34.04 26.81 28.09 24.06 27.23 27.10 25.86 28.20 27.98 28.54 28.11 28.24 28.83 26.43 23.74 24.51 26.12 25.77 26.66 26.82 26.20 27.53
31.86 33.21 33.81 28.12 27.46 25.87 25.70 28.43 29.61 29.95 31.74 31.65 30.08 30.89 30.47 31.89 32.60 32.16 31.52 31.17 31.12 28.89 27.83 28.38 26.85 23.95 19.14 23.83 23.26 17.97 23.20 25.67 27.00 28.83 24.63 21.19 20.35 21.62 21.79 23.62 24.60 25.87 27.71 25.88 26.81

GFSSW_sfc_wetblb_009.txt.gz
Wetbulb
58.96 58.92 59.11 59.23 59.29 59.29 59.44 59.40 59.25 59.24 59.46 59.74 59.94 59.91 60.06 60.19 59.60 53.04 46.33 53.20 54.76 64.19 57.95 51.56 50.78 49.66 49.85 48.44 47.42 44.93 38.71 35.28 38.00 37.23 40.39 43.20 42.39 43.87 44.44 44.42 44.10 45.71 45.87 47.57 45.50
58.77 58.77 58.97 59.09 59.11 59.15 59.10 58.86 58.67 58.80 59.03 59.22 59.47 59.70 59.72 59.67 52.15 48.11 56.14 62.03 65.05 62.05 50.67 49.16 47.45 47.87 45.84 46.29 46.46 43.25 37.11 38.13 40.26 39.78 41.39 43.12 42.82 44.16 43.79 44.02 42.93 44.27 45.59 45.17 44.84
58.66 58.67 58.73 58.87 59.02 59.13 59.12 58.96 58.71 58.57 58.56 58.67 58.93 59.25 59.21 57.13 44.41 44.31 62.01 63.54 65.22 59.04 50.71 49.06 48.18 47.51 44.37 45.14 44.92 42.22 39.94 40.80 41.85 41.70 42.85 43.01 42.01 43.94 42.73 42.51 44.30 44.34 46.23 45.07 43.96
58.96 58.77 58.79 58.76 58.96 59.23 59.16 59.11 59.19 58.90 58.61 58.45 58.56 58.72 58.63 51.08 38.12 44.51 62.76 65.22 64.48 51.68 50.08 48.01 46.93 44.36 42.67 42.19 44.36 40.63 42.63 42.31 44.10 44.02 42.85 42.66 43.12 42.35 42.78 47.73 48.10 45.96 46.46 45.33 43.87
59.10 58.94 59.02 58.89 58.93 59.20 59.09 58.97 59.39 59.24 58.66 58.49 58.31 58.39 50.77 40.62 44.17 55.38 63.85 63.89 52.13 50.27 48.47 46.44 44.89 43.45 41.24 41.27 41.78 40.90 41.89 43.74 43.75 43.16 43.34 43.19 43.64 42.88 42.73 46.10 45.66 45.24 44.11 44.36 43.67
59.21 58.89 58.83 58.93 58.93 59.05 58.94 58.91 59.09 59.15 58.75 58.55 58.30 57.86 43.58 38.48 47.74 57.52 56.68 52.20 50.20 48.51 46.60 46.56 45.24 45.04 41.85 41.17 41.65 41.06 41.73 41.57 41.69 42.68 42.37 42.60 44.03 42.60 44.22 45.01 45.01 43.34 44.88 43.62 42.94
59.31 58.86 58.55 58.60 58.97 58.92 58.84 58.95 58.74 58.64 58.60 58.67 58.06 54.67 42.78 42.83 48.96 53.08 52.67 49.34 49.30 47.70 45.27 45.36 45.71 44.44 42.91 39.78 41.84 40.70 39.28 39.57 39.19 40.44 40.36 41.03 39.46 38.84 45.26 42.01 43.87 44.79 43.18 42.93 42.80
58.92 58.33 58.03 58.12 58.39 58.53 58.67 58.75 58.63 58.08 57.98 58.34 57.61 49.58 39.46 47.17 48.50 49.18 46.75 45.40 46.90 46.32 46.10 45.53 45.80 44.62 42.47 42.25 40.13 36.88 35.94 33.94 38.68 38.66 39.38 41.17 36.36 42.12 42.68 40.75 41.60 42.03 43.57 42.55 45.10
58.25 57.82 57.83 57.99 57.91 57.97 58.26 58.11 57.20 57.53 57.74 57.61 48.43 41.60 39.68 50.45 45.55 46.08 46.11 44.91 45.13 44.94 45.77 47.49 45.27 41.08 39.86 36.05 33.70 33.19 30.89 31.17 34.52 39.29 38.66 38.33 36.10 40.53 40.89 40.24 40.70 42.40 43.92 45.57 46.05
58.08 57.81 57.86 57.95 57.82 57.88 57.56 55.09 56.26 54.89 55.19 54.97 50.36 39.45 42.76 42.10 45.92 45.65 45.13 45.83 43.81 43.76 43.18 42.41 38.80 36.93 33.87 33.99 29.91 30.80 29.04 30.29 31.63 38.32 35.46 35.41 35.37 40.34 41.81 41.36 42.55 43.52 44.09 43.87 44.62
58.38 58.20 58.13 57.92 57.93 57.92 50.10 44.61 43.01 40.27 43.58 41.30 41.49 40.20 40.58 44.36 46.41 44.51 45.88 45.20 43.19 41.07 36.85 37.48 34.53 32.87 36.32 35.89 34.50 32.11 30.87 30.01 34.89 37.98 34.46 37.33 37.42 38.68 41.13 40.40 41.46 43.01 43.90 44.29 44.44
59.10 58.70 58.37 57.82 57.73 55.55 45.90 42.47 40.64 41.77 38.11 42.87 42.42 43.05 43.75 44.22 41.38 42.73 45.55 42.20 40.07 36.52 35.97 33.99 32.29 38.26 37.06 35.64 34.73 33.08 31.82 32.36 35.25 37.54 33.73 34.81 36.30 39.89 41.16 41.89 42.77 42.84 43.39 42.90 42.74
59.04 58.49 58.14 57.52 56.70 49.88 44.06 42.83 46.96 45.17 35.61 40.37 41.15 40.38 40.96 43.93 40.30 40.85 43.27 40.12 37.37 34.48 34.25 33.86 36.44 37.67 36.35 33.76 33.34 31.51 31.03 33.23 32.07 33.43 34.02 31.86 32.44 34.03 38.98 38.50 40.13 41.83 42.23 41.70 41.25
58.72 58.60 57.99 57.04 52.51 47.10 44.98 45.82 46.61 43.23 34.68 37.94 37.57 39.20 40.92 40.39 35.90 40.01 40.94 39.23 36.07 35.43 34.01 33.79 36.41 36.47 33.13 33.85 33.88 30.87 35.12 34.13 32.14 30.13 27.28 33.16 27.28 31.78 37.61 37.90 38.87 39.27 39.70 39.74 40.64
57.56 57.95 58.10 55.85 50.46 48.66 46.67 46.54 45.57 39.73 31.21 39.06 36.44 42.50 40.84 37.49 36.56 37.10 38.90 37.95 33.78 34.56 34.28 34.03 33.50 32.36 32.33 34.78 34.89 33.70 34.27 32.44 31.17 29.29 27.82 28.02 25.13 31.08 33.56 35.02 37.12 39.25 40.79 41.12 40.45
55.01 56.96 55.80 53.59 51.30 49.90 47.30 46.50 41.50 37.76 31.37 37.46 36.01 34.98 34.97 35.75 35.55 36.29 36.95 37.67 36.22 33.52 32.49 33.70 34.40 34.93 35.48 34.56 35.13 34.44 32.52 30.35 29.06 28.75 23.62 29.37 28.54 30.62 31.88 35.51 35.62 38.39 41.40 40.48 40.36
52.33 54.26 55.22 54.24 51.45 49.52 48.38 49.49 38.74 33.79 40.74 36.38 33.74 34.03 32.62 32.38 33.79 34.10 33.49 32.89 32.82 30.30 29.17 30.52 31.69 32.84 34.62 31.65 31.95 33.34 30.36 23.96 21.77 20.15 22.89 27.48 25.73 32.92 36.09 39.28 38.23 40.29 39.68 38.43 39.20
51.22 53.84 54.92 54.33 51.14 49.18 50.53 44.91 33.62 36.80 37.21 38.89 37.41 36.08 35.84 36.68 35.61 33.11 32.41 31.55 32.55 31.56 27.45 29.18 31.99 32.61 34.01 34.91 33.31 30.28 31.31 26.55 20.37 20.75 27.57 23.37 26.35 36.07 36.74 39.29 38.73 37.88 37.07 38.55 38.62
51.05 52.22 53.55 53.89 51.04 51.88 48.15 37.40 36.34 35.79 39.47 38.47 39.57 35.13 32.49 34.73 36.44 32.98 30.96 31.30 33.58 34.12 33.37 28.02 28.54 31.69 32.70 33.72 35.42 29.02 27.96 33.50 27.64 25.78 24.55 29.35 31.78 38.88 39.65 36.74 36.81 35.44 34.32 33.37 34.18
45.07 48.08 49.29 53.67 51.49 50.82 43.37 38.62 39.99 40.84 41.58 40.98 36.09 37.88 32.42 33.29 35.48 34.14 32.75 32.99 32.77 34.31 36.70 34.23 31.46 33.74 32.65 31.36 32.70 32.84 34.38 27.30 26.00 20.34 20.71 26.44 29.36 31.58 35.82 32.63 32.29 32.20 31.86 31.70 32.36
45.24 42.01 46.50 51.85 52.48 45.95 35.79 36.74 39.98 43.62 44.17 41.17 39.35 38.43 37.75 36.99 36.79 34.68 37.32 37.91 36.73 35.31 35.52 34.27 33.01 32.29 33.03 30.08 30.29 29.12 28.61 29.16 29.67 28.43 24.64 23.29 28.04 35.59 30.09 30.88 29.93 29.29 29.40 29.63 30.43
43.06 34.96 48.82 52.92 41.98 41.79 37.70 39.43 42.00 41.16 43.12 41.86 41.79 39.55 37.92 38.27 36.64 36.26 35.95 38.79 41.13 37.31 33.32 35.21 34.71 29.57 30.79 35.32 33.26 32.25 32.92 33.28 28.65 27.13 27.74 29.01 29.10 38.39 29.65 29.44 28.19 26.48 27.97 29.22 30.36
38.76 38.05 48.81 49.84 34.78 36.47 38.32 38.89 41.14 38.86 39.49 40.51 38.73 40.14 38.83 36.78 33.75 36.87 36.91 39.03 40.80 40.54 38.41 38.99 34.02 28.38 29.84 31.43 33.23 33.48 34.84 34.65 33.97 32.05 28.47 25.50 28.26 35.83 31.24 29.36 28.85 26.71 27.13 28.23 29.39
34.47 28.67 37.84 44.19 40.37 36.64 34.54 34.82 35.19 39.22 39.34 40.56 39.33 39.39 37.00 35.17 37.21 34.85 35.28 38.57 37.85 38.95 40.92 39.93 34.29 31.41 26.73 28.25 32.91 31.05 32.44 33.24 32.83 28.60 27.45 28.74 30.71 33.67 26.82 24.86 26.21 27.64 27.84 27.36 28.11
31.29 28.85 33.93 31.57 31.46 33.67 34.84 33.17 31.26 31.21 35.71 36.17 33.73 35.00 33.71 31.73 32.19 31.93 35.68 36.22 37.40 37.65 35.29 36.74 30.10 31.91 31.72 31.69 30.72 28.16 27.44 27.37 25.82 27.37 24.22 26.76 26.32 30.61 22.84 22.83 24.83 26.58 28.51 27.16 26.47
28.05 26.28 29.74 31.09 31.67 28.61 33.03 29.26 30.53 31.74 33.23 31.15 30.38 31.97 31.80 29.27 31.18 30.17 32.38 31.71 31.85 31.09 30.16 33.38 28.13 26.92 22.58 27.30 26.19 24.72 25.66 25.96 25.91 26.04 26.04 26.92 26.99 23.52 24.36 25.27 24.06 24.61 27.21 25.77 24.92
30.24 31.54 29.55 26.41 26.53 25.01 24.95 28.06 27.01 28.81 30.32 28.71 27.55 27.67 27.06 29.01 30.64 31.65 32.11 31.49 31.06 29.69 28.45 29.00 26.66 22.71 20.14 24.27 22.08 17.86 21.68 23.96 25.00 26.61 24.94 21.03 18.96 19.54 20.33 22.66 22.66 23.06 27.52 25.01 24.88

GFSSW_sfc_wetblb_012.txt.gz
Wetbulb
59.30 59.37 59.57 59.59 59.57 59.64 59.59 59.33 59.09 59.15 59.34 59.61 59.93 60.10 60.13 60.17 59.64 56.92 50.63 56.46 57.74 63.41 59.74 56.36 56.10 55.06 55.42 53.82 52.94 51.81 47.47 44.68 44.87 44.46 46.22 49.34 48.23 48.89 50.45 50.07 49.85 51.38 52.38 54.70 52.49
58.95 59.04 59.18 59.33 59.40 59.47 59.47 59.35 59.13 59.06 59.03 59.08 59.27 59.53 59.81 59.61 56.06 52.83 60.17 61.53 64.50 62.06 55.45 54.30 52.85 53.80 52.68 52.00 52.97 50.87 46.97 46.03 48.28 48.35 47.35 48.98 48.62 49.70 48.90 50.16 50.86 50.90 53.34 53.21 51.89
58.82 58.89 59.06 59.17 59.29 59.49 59.50 59.32 59.17 59.12 59.02 58.88 58.94 59.13 59.23 58.97 51.47 50.02 62.48 63.85 65.10 60.41 56.19 54.64 54.59 53.09 50.32 51.58 51.41 50.02 46.93 49.54 48.35 48.66 48.14 48.13 48.60 49.61 49.21 48.32 51.09 50.97 52.59 54.10 52.23
59.08 59.02 59.08 59.16 59.24 59.51 59.52 59.49 59.63 59.38 59.02 58.81 58.74 58.81 58.93 56.48 44.16 50.89 62.89 65.38 63.67 57.09 54.97 53.58 52.87 50.64 49.50 48.58 50.61 46.77 49.66 49.77 50.07 49.09 48.43 47.90 49.76 48.38 49.46 50.43 52.71 53.37 53.80 53.25 52.56
59.32 59.14 59.15 59.11 59.12 59.43 59.52 59.47 59.85 59.80 59.18 58.92 58.56 58.51 55.63 48.48 49.62 60.09 63.89 64.55 57.15 54.96 53.71 52.58 50.98 50.42 47.70 48.39 47.82 46.91 48.80 49.63 50.11 48.89 48.93 49.79 48.40 48.80 49.33 52.03 53.06 52.97 52.04 51.23 51.99
59.39 59.02 58.85 58.92 59.11 59.24 59.30 59.36 59.51 59.50 59.04 58.91 58.49 57.85 51.18 43.73 53.33 61.97 61.67 55.59 55.45 54.58 52.96 52.78 51.36 51.77 48.68 47.67 47.20 47.92 47.46 47.84 48.16 48.03 48.45 46.49 47.92 47.27 49.11 51.59 50.76 51.05 51.10 51.94 51.66
59.31 58.86 58.48 58.49 58.95 59.24 59.26 59.28 58.94 58.67 58.59 58.77 58.62 55.90 48.69 48.15 54.88 59.52 56.25 54.99 54.50 53.99 51.31 51.71 52.00 50.54 49.57 46.68 47.64 46.55 44.37 46.69 47.22 46.73 45.94 47.01 44.53 44.86 49.96 49.98 48.86 49.82 50.92 51.15 51.30
58.86 58.33 58.04 58.20 58.49 58.78 58.97 58.98 58.18 58.16 58.00 58.35 58.17 54.70 47.84 51.02 55.89 54.74 53.04 51.27 53.11 52.34 51.77 51.64 52.04 50.31 48.37 48.27 45.99 43.81 43.24 40.94 46.43 44.34 45.24 46.21 41.59 47.27 49.54 47.34 47.60 48.89 49.84 50.49 51.36
58.37 57.94 58.00 58.19 58.13 58.16 58.54 57.40 57.65 57.98 58.58 57.86 53.94 49.87 46.96 52.92 49.54 50.73 51.97 50.09 50.60 50.54 51.19 50.37 51.07 48.06 46.80 44.04 42.18 42.78 39.32 40.79 42.16 45.38 43.92 44.33 42.32 46.73 48.70 47.17 46.95 48.18 49.05 49.72 50.41
58.35 58.08 58.18 58.21 58.03 58.09 57.10 54.84 57.60 56.76 56.49 55.92 52.64 46.57 48.42 46.32 49.49 49.13 50.07 50.44 48.59 49.47 48.58 48.36 47.61 45.15 43.64 42.59 37.55 40.61 40.15 40.47 39.66 44.48 44.16 41.97 41.68 44.74 46.53 46.29 46.06 47.26 48.29 49.22 49.76
58.80 58.60 58.68 58.33 58.23 58.35 53.84 52.74 53.16 49.86 49.75 47.91 48.57 46.94 46.26 49.05 50.30 48.08 49.33 48.34 48.53 47.24 43.92 44.92 42.61 40.94 44.11 44.32 44.20 41.57 40.17 39.39 42.32 44.72 42.30 41.67 42.19 44.02 46.21 46.37 46.21 46.90 48.06 48.90 49.55
59.55 59.34 59.22 58.57 58.14 55.72 52.78 49.74 47.59 47.37 46.56 48.83 47.00 46.72 47.18 49.05 45.97 46.60 49.26 46.48 45.33 42.59 42.32 41.39 39.83 44.86 43.80 42.53 41.03 40.96 39.01 39.23 42.71 43.83 39.93 41.56 40.95 43.77 45.32 45.77 47.07 47.25 47.69 48.43 48.77
59.22 58.81 58.72 58.44 57.40 55.43 50.22 48.37 50.94 49.86 44.20 46.80 45.66 44.79 45.74 47.93 44.97 45.12 47.21 45.93 43.90 40.45 40.71 41.41 43.86 43.95 41.13 41.56 39.31 40.20 38.51 39.77 39.57 41.54 42.25 39.92 40.98 41.98 45.84 45.25 46.66 46.42 47.40 47.29 46.73
58.85 58.73 58.32 57.78 55.57 53.30 51.16 49.67 50.83 48.94 43.64 44.58 43.26 44.24 45.67 45.74 42.17 44.42 46.19 45.30 43.16 41.37 40.78 40.90 42.13 40.30 39.47 39.43 41.26 37.34 42.77 40.28 38.45 37.13 36.38 39.84 34.25 42.31 44.69 44.42 44.65 46.15 46.92 46.86 46.73
57.71 58.27 58.43 56.95 57.37 54.78 51.44 50.40 50.29 46.82 34.33 44.26 41.68 47.88 45.62 42.63 42.49 42.02 44.70 45.08 41.40 40.99 41.03 40.65 38.69 37.68 37.71 40.18 40.89 39.98 39.79 38.00 37.03 36.89 35.37 38.20 34.32 41.66 41.27 41.43 43.55 45.59 45.14 45.42 44.43
55.22 57.59 55.83 56.01 55.22 53.40 50.97 50.10 48.35 42.49 33.52 42.68 41.72 41.02 41.43 41.76 40.94 42.07 42.79 44.53 42.59 40.59 40.06 41.44 40.54 40.61 41.70 40.24 40.16 39.38 38.91 37.51 36.87 36.79 32.13 38.53 36.11 38.69 40.72 41.07 42.88 42.94 42.10 41.34 41.46
52.38 56.26 55.99 55.60 53.98 51.39 50.03 51.59 42.18 35.23 44.60 41.65 40.05 39.88 39.18 38.54 39.35 39.94 40.23 39.76 39.98 37.68 38.90 40.71 38.61 40.25 40.19 38.70 38.67 38.42 37.05 33.84 32.66 32.38 31.36 36.69 33.66 38.67 43.34 42.67 40.32 40.32 39.38 39.57 40.28
51.45 55.76 55.01 54.89 53.06 51.74 53.40 47.40 34.58 40.26 41.95 43.39 42.32 41.39 41.46 41.91 40.99 38.91 39.06 40.23 39.95 38.37 38.84 36.97 35.59 38.83 40.26 41.18 41.92 37.85 38.27 33.78 26.51 28.56 32.23 31.88 31.97 38.71 43.08 40.43 39.73 39.40 38.95 38.86 38.66
51.76 55.35 54.47 55.76 52.67 53.74 50.43 37.09 37.56 40.35 43.49 42.29 43.04 40.27 40.61 40.77 40.77 40.07 38.46 40.02 40.73 40.60 38.41 37.60 37.09 38.71 37.56 39.26 41.10 37.01 34.22 39.47 33.05 34.02 29.88 34.79 38.97 43.37 43.11 37.63 38.17 37.21 36.89 35.49 36.04
49.64 51.18 50.84 55.36 53.38 52.95 44.89 37.37 40.16 43.59 44.29 43.58 38.19 41.04 37.35 39.72 38.63 38.39 39.56 40.20 39.35 40.00 39.98 39.06 33.84 40.68 40.56 38.24 39.21 37.90 40.35 32.65 32.35 24.66 23.91 30.74 33.63 35.62 36.85 35.90 35.42 34.22 33.53 34.24 34.68
48.60 43.69 49.10 53.42 53.86 46.32 36.76 38.00 40.57 45.13 45.79 42.08 40.66 39.48 39.69 38.61 38.97 38.18 38.26 41.69 41.83 43.08 39.65 39.66 37.24 37.05 38.02 37.08 36.39 36.21 32.89 33.67 33.54 31.73 26.39 25.09 30.92 39.43 37.80 34.33 32.99 32.04 32.06 32.23 33.21
47.14 37.46 50.65 53.47 42.92 43.30 38.19 40.04 42.10 42.00 44.37 43.07 43.52 41.78 39.65 39.86 37.48 37.07 36.73 40.19 44.48 43.39 38.37 41.66 36.54 32.00 34.87 40.88 39.12 37.61 36.31 36.21 29.73 28.05 31.01 29.70 30.22 36.07 33.26 32.39 30.86 29.44 30.04 31.65 32.47
42.56 41.23 49.86 50.58 36.45 37.79 40.68 40.09 41.78 40.50 40.73 40.48 39.39 41.28 41.34 38.00 34.21 37.06 38.14 42.49 43.33 41.95 39.54 40.22 34.60 29.44 31.23 35.64 36.70 35.53 37.22 37.12 35.42 32.83 30.30 27.60 29.30 35.45 32.41 30.56 31.79 29.90 30.15 30.35 30.58
40.10 33.91 40.91 45.14 43.89 39.09 37.42 37.01 37.03 41.31 40.44 41.52 40.21 41.33 38.76 36.46 38.37 34.99 35.78 39.73 40.93 40.64 41.22 39.89 34.72 32.04 26.85 31.32 34.53 32.95 34.28 33.45 32.56 28.03 28.66 29.84 32.13 35.78 36.79 32.62 30.81 29.98 30.97 31.16 29.87
36.84 33.36 36.96 34.82 36.09 38.01 37.61 35.89 33.81 33.34 37.83 38.67 35.93 36.66 33.29 30.69 31.65 31.66 35.08 36.09 38.28 38.20 37.65 37.34 31.01 32.32 32.71 33.99 33.71 32.44 31.30 31.71 29.56 30.20 25.10 28.55 28.54 32.41 34.92 32.09 28.10 28.64 29.43 29.73 28.51
33.39 33.39 35.11 34.23 34.99 34.50 35.27 33.69 33.68 34.28 34.13 32.70 32.41 34.22 33.73 30.35 31.35 29.77 32.43 32.32 31.68 34.95 34.08 35.50 27.83 29.99 26.38 31.06 31.10 28.11 30.27 29.98 29.30 29.27 28.58 28.51 28.12 34.75 28.16 28.22 27.47 27.48 28.24 28.67 28.20
35.93 36.64 34.67 30.87 30.18 30.94 31.37 32.29 30.47 33.17 31.46 31.74 30.76 29.99 29.12 31.60 33.02 32.84 33.88 33.00 32.94 30.25 29.58 29.99 28.19 25.70 21.41 27.78 26.81 21.56 25.57 27.17 28.40 30.67 29.80 24.61 27.52 25.72 24.26 26.13 27.47 27.57 27.97 28.75 28.18

GFSSW_sfc_wetblb_015.txt.gz
Wetbulb
59.32 59.38 59.55 59.65 59.63 59.65 59.68 59.58 59.41 59.35 59.31 59.42 59.72 59.80 59.98 60.15 59.81 59.67 53.37 58.42 59.54 63.29 61.22 57.50 57.03 56.49 56.87 55.29 55.43 54.92 47.93 45.77 46.92 46.35 47.16 50.95 49.17 51.69 53.25 51.09 52.29 53.27 52.97 54.98 55.78
58.88 59.05 59.28 59.39 59.49 59.64 59.61 59.48 59.39 59.37 59.39 59.28 59.41 59.54 59.59 59.52 57.63 54.87 60.73 61.74 64.99 62.52 57.13 55.54 54.23 55.06 54.01 53.76 54.27 51.40 48.19 47.55 50.23 49.70 48.41 49.80 49.81 50.34 50.27 50.28 50.81 52.31 54.94 56.07 55.98
58.78 58.99 59.21 59.39 59.43 59.72 59.76 59.67 59.59 59.52 59.33 59.26 59.19 59.29 59.23 59.27 54.35 51.80 61.72 63.70 65.21 61.84 57.78 57.01 55.44 54.25 51.76 53.24 52.92 51.72 47.48 50.19 50.68 51.29 51.04 49.58 49.21 51.00 49.47 48.27 50.74 50.65 52.39 54.07 54.93
59.06 59.08 59.17 59.28 59.37 59.65 59.85 59.84 59.94 59.76 59.46 59.33 59.19 59.05 59.17 58.36 45.77 54.56 63.29 65.41 64.24 59.25 56.52 54.65 53.67 51.30 50.08 49.46 52.28 48.48 50.41 50.81 51.52 51.70 50.11 48.93 50.63 49.36 50.02 50.44 53.02 53.42 53.91 53.93 53.70
59.56 59.30 59.17 59.15 59.22 59.52 59.74 59.81 60.26 60.06 59.51 59.39 59.20 58.87 58.20 50.89 50.80 60.93 63.79 64.28 58.17 56.57 54.47 53.45 51.90 51.29 48.30 49.21 50.37 48.69 49.47 50.30 51.17 51.08 50.64 50.79 48.92 49.04 49.44 52.15 53.28 53.42 53.30 53.08 53.49
59.65 59.24 58.98 58.95 59.15 59.38 59.53 59.66 59.64 59.39 59.06 59.04 59.07 58.19 54.71 46.72 55.49 62.11 62.18 60.13 56.59 55.48 54.41 54.35 52.07 52.78 50.03 48.92 48.27 49.76 48.94 49.02 49.63 49.36 49.59 47.83 48.37 49.22 49.81 52.15 51.66 51.72 51.71 52.38 52.80
59.47 58.98 58.60 58.68 59.20 59.46 59.43 59.34 58.87 58.28 58.52 58.75 59.10 57.42 51.14 51.45 57.12 60.74 59.81 57.36 56.88 55.96 53.74 55.12 54.28 51.48 51.17 48.36 50.59 48.45 45.09 47.55 48.37 49.04 48.05 48.47 45.53 46.45 50.77 51.44 50.13 50.25 50.86 51.52 52.12
59.04 58.51 58.23 58.41 58.80 59.05 59.17 59.09 57.12 58.15 58.08 58.11 58.98 56.11 49.69 52.44 57.39 56.78 56.23 54.47 55.94 55.43 54.57 54.36 54.35 52.10 49.94 50.53 48.09 45.31 46.11 42.09 47.71 47.17 47.45 46.81 42.08 47.94 50.22 49.46 48.78 49.60 50.21 50.95 51.80
58.75 58.34 58.32 58.48 58.47 58.48 58.82 56.65 57.56 58.49 58.47 58.24 56.51 54.11 49.08 52.91 50.87 52.82 54.33 51.56 53.69 53.06 52.80 52.10 52.91 50.00 49.36 45.14 43.64 45.57 40.73 42.86 44.34 48.23 46.41 45.39 42.91 47.76 49.73 48.83 47.98 49.15 50.07 50.63 51.16
58.88 58.64 58.65 58.69 58.50 58.47 57.83 54.94 58.02 56.70 57.28 56.85 54.04 48.56 48.82 48.23 50.91 51.26 52.49 52.86 50.49 51.06 49.46 49.31 48.79 45.86 45.84 44.17 38.51 42.48 42.69 43.74 43.02 47.21 46.05 44.99 44.50 47.32 48.86 48.76 48.75 49.68 50.42 50.73 51.01
59.36 59.22 59.27 59.03 58.80 58.79 56.84 56.29 55.67 53.18 52.55 50.70 52.13 49.51 52.19 50.88 52.08 50.08 51.15 50.23 50.68 49.14 44.83 47.40 43.68 41.55 45.13 46.74 45.78 44.39 42.84 41.98 44.43 47.26 45.58 44.01 43.81 45.73 48.50 48.93 48.88 49.79 50.33 50.24 49.97
59.75 59.81 59.81 59.36 58.76 57.59 56.70 54.38 50.04 49.46 48.48 55.59 53.95 51.70 50.21 50.99 47.40 48.53 50.95 47.38 46.64 43.67 45.80 43.18 40.82 46.07 47.46 44.79 43.68 43.24 41.43 41.35 44.52 46.61 42.88 43.16 43.11 45.69 47.86 47.97 49.57 48.68 48.81 48.58 48.81
59.61 59.29 59.25 59.00 58.55 58.38 54.74 51.54 53.10 52.05 47.06 51.44 50.22 48.82 49.00 49.62 48.53 49.00 49.39 48.18 45.46 44.07 43.45 42.43 45.96 46.78 44.67 43.76 42.05 42.43 40.72 40.97 40.92 43.58 44.57 43.36 41.94 45.96 48.22 49.73 50.02 48.45 48.24 47.71 45.71
59.37 59.08 58.84 58.71 55.82 58.70 55.06 52.62 53.50 51.98 44.89 46.89 46.25 46.40 46.88 47.85 44.90 46.89 48.87 47.64 45.69 43.84 46.00 44.29 46.46 43.04 42.60 40.99 42.89 39.11 44.83 42.52 40.99 39.33 37.21 42.94 34.19 42.38 46.44 47.07 45.95 46.06 46.28 44.88 44.60
58.50 58.78 59.04 56.74 59.72 57.04 53.28 53.30 53.27 50.65 34.21 46.23 43.57 49.84 47.61 44.18 44.20 43.79 47.32 46.59 43.32 43.70 43.18 42.21 41.36 40.32 40.52 42.03 43.92 41.52 42.13 41.13 40.83 39.18 39.06 39.92 37.96 41.57 45.45 43.81 45.11 44.54 44.00 43.97 43.89
56.75 57.97 57.21 57.60 59.78 55.86 54.32 52.81 52.06 42.99 33.83 44.35 43.87 43.08 42.98 43.60 43.06 44.54 44.98 46.92 45.24 42.69 43.52 42.90 43.13 42.51 43.32 43.39 42.96 41.99 40.68 41.08 41.03 39.38 33.48 39.96 38.73 39.15 41.26 42.37 41.80 42.43 42.34 42.70 42.77
54.05 56.99 55.59 56.87 55.65 55.63 54.21 54.40 43.58 36.12 46.31 43.10 41.66 42.14 41.69 41.01 41.62 42.29 42.34 41.64 41.86 39.14 40.34 43.80 43.25 43.31 42.16 40.42 41.85 39.80 38.14 33.70 33.09 33.84 32.58 41.52 36.53 39.44 44.21 45.07 43.88 41.66 40.92 41.54 42.22
52.22 56.46 55.72 56.62 52.52 51.30 53.40 47.76 35.54 39.97 42.19 45.81 44.61 44.83 42.73 44.54 43.35 42.22 42.36 41.75 45.38 41.73 40.24 37.82 36.11 42.61 42.32 41.53 40.45 41.07 40.47 34.35 26.98 29.28 33.80 38.64 33.20 39.16 43.03 42.42 42.32 41.87 40.73 40.34 40.02
52.93 56.17 55.53 58.37 55.42 53.65 50.70 37.91 37.87 41.91 44.96 43.76 43.94 40.72 41.71 43.38 42.22 43.15 43.35 41.87 43.65 44.72 38.18 37.49 37.37 45.40 42.03 42.66 41.51 39.31 35.73 40.03 32.78 33.70 30.81 35.01 39.09 43.38 43.93 40.34 39.85 38.56 38.17 37.31 37.73
52.01 51.47 51.14 56.14 54.26 54.06 45.21 38.26 41.23 45.13 45.22 44.81 39.24 42.33 38.62 41.07 40.42 41.00 40.78 42.94 41.73 42.12 42.64 40.41 33.56 41.86 41.86 41.41 42.92 39.94 43.15 33.46 33.66 25.18 24.32 31.36 33.60 35.36 40.85 40.48 37.50 36.25 35.66 36.08 36.83
49.39 42.80 49.21 53.65 55.07 48.46 36.97 38.25 41.44 45.17 45.70 42.76 41.07 39.97 40.38 39.11 40.07 38.97 39.09 42.77 43.94 42.68 42.41 40.68 37.50 37.13 40.78 38.35 37.03 37.81 35.12 36.00 35.42 32.46 26.05 24.78 30.94 39.87 38.92 38.72 36.07 34.56 34.61 34.86 35.07
47.41 39.08 52.36 54.43 43.23 43.49 39.52 40.96 42.20 42.79 45.03 43.48 43.31 41.41 39.92 40.15 38.35 38.33 37.92 40.87 45.51 43.93 38.84 41.70 37.19 31.94 34.54 41.03 42.66 40.49 37.08 37.07 30.11 28.85 31.41 29.92 29.85 42.67 37.50 35.94 34.70 32.64 32.92 33.78 34.05
42.50 43.67 51.48 51.34 36.78 38.89 41.61 40.57 42.43 41.13 41.85 41.85 40.86 42.30 42.47 38.68 35.04 38.26 39.07 43.10 43.70 41.20 39.11 40.37 34.80 28.23 29.84 35.05 39.21 36.21 38.06 38.26 37.09 34.31 29.61 26.69 29.42 37.82 34.36 33.85 33.88 33.32 33.89 33.03 31.75
42.32 35.57 43.17 45.19 45.47 40.27 38.30 38.33 37.92 43.21 41.62 42.23 40.61 41.47 39.29 37.22 39.40 35.86 36.42 40.26 42.13 41.33 40.99 40.97 34.29 30.99 26.14 29.71 34.58 31.44 34.00 35.78 33.90 28.49 29.20 29.36 30.63 35.98 37.04 35.12 35.26 34.98 33.22 33.11 32.14
40.88 36.30 40.22 35.16 38.49 39.77 39.45 37.72 35.79 35.98 39.91 40.27 37.71 37.88 36.57 33.17 34.25 34.00 36.55 37.26 38.93 39.08 38.47 37.23 29.76 31.38 32.05 33.23 33.12 31.79 30.78 31.54 30.11 31.49 26.88 29.77 30.00 33.88 35.86 36.62 34.61 33.66 31.92 31.77 30.83
35.91 35.31 37.75 38.24 39.26 38.08 37.22 35.07 34.70 35.98 35.76 34.41 34.33 36.58 37.02 33.31 33.49 30.32 32.79 33.27 32.48 35.29 34.62 35.72 27.66 29.26 25.13 29.41 29.59 27.32 29.88 30.39 30.97 31.31 30.78 30.64 29.46 36.31 32.65 31.50 30.66 30.24 29.78 30.02 31.39
38.87 39.08 37.28 34.68 35.07 34.93 35.85 35.50 34.36 37.15 35.38 35.61 35.58 34.05 32.10 33.98 35.96 35.15 35.15 35.21 34.67 31.88 29.95 29.20 27.23 24.46 19.82 26.19 25.73 20.55 25.61 27.93 29.79 31.80 30.63 25.53 28.54 27.90 28.98 28.60 29.49 29.98 29.63 29.11 30.49

GFSSW_sfc_wetblb_021.txt.gz
Wetbulb
59.41 59.59 59.78 59.90 60.03 60.19 60.34 60.34 60.35 60.26 60.13 60.13 60.21 60.25 60.17 60.19 59.62 58.12 53.51 57.72 58.01 64.26 61.46 54.10 52.24 51.47 51.73 49.98 49.47 46.78 38.47 35.92 38.40 39.87 40.00 44.31 43.11 45.09 45.62 43.76 44.69 46.87 45.11 47.17 49.38
59.11 59.36 59.66 59.85 59.93 60.15 60.36 60.45 60.39 60.41 60.36 60.29 60.13 60.13 60.08 59.80 55.99 52.17 60.73 65.06 64.56 64.60 53.82 51.00 48.88 50.11 46.62 48.19 47.73 42.93 37.75 40.07 42.75 41.13 41.27 44.02 42.51 42.40 43.05 42.91 42.64 44.22 46.04 46.46 49.91
59.35 59.33 59.49 59.72 59.82 60.00 60.43 60.81 60.67 60.73 60.46 60.56 60.16 60.31 60.12 58.51 51.28 51.19 62.18 64.61 64.24 62.89 55.49 53.06 51.36 49.94 44.97 45.95 45.66 44.19 39.63 43.57 45.76 46.09 45.35 44.57 44.58 44.27 41.83 40.86 44.22 44.13 45.50 47.31 46.88
59.71 59.59 59.47 59.54 59.55 59.84 60.23 60.68 60.75 60.82 60.41 60.09 60.04 60.23 59.59 55.07 39.79 54.28 61.93 63.43 63.58 56.84 53.70 51.28 48.67 44.83 43.04 42.49 47.18 40.99 45.70 45.36 46.65 47.00 45.29 43.45 45.05 44.42 43.62 45.78 46.95 46.70 46.90 45.92 46.91
59.51 59.28 59.21 59.28 59.33 59.74 60.24 60.77 60.83 60.62 60.15 59.65 59.66 59.82 54.96 48.01 48.49 58.98 63.02 63.36 57.39 54.24 50.51 49.38 46.31 45.34 41.54 42.99 43.93 41.96 43.88 46.70 46.68 45.98 44.80 45.46 43.84 43.37 44.49 47.66 47.48 47.49 47.48 45.61 45.80
59.41 58.97 58.77 58.79 59.25 59.72 60.10 60.34 60.50 59.87 58.94 58.83 59.04 59.04 50.70 42.86 55.85 59.53 58.87 56.65 53.88 51.69 49.66 49.24 47.26 47.57 43.90 43.09 41.53 43.11 43.17 43.50 44.65 45.02 44.28 43.55 42.41 42.57 44.95 44.75 45.03 45.19 44.19 44.29 44.78
59.36 58.77 58.47 58.54 59.15 59.75 60.12 60.16 59.70 58.17 59.21 58.98 59.04 56.56 49.68 47.27 56.69 58.74 58.19 54.03 53.20 51.69 49.40 50.55 49.78 47.27 45.58 42.75 45.65 43.57 40.06 41.88 43.02 43.15 42.97 43.53 40.03 41.24 45.20 44.69 44.17 43.54 43.29 45.06 44.23
59.07 58.47 58.23 58.41 58.99 59.58 59.96 59.98 57.98 58.82 59.11 58.04 59.24 52.97 44.16 51.07 52.81 55.66 53.82 51.51 52.86 52.38 50.71 50.06 50.23 47.98 45.22 45.65 43.87 40.04 37.30 34.68 42.08 42.42 42.39 40.97 35.98 42.80 44.96 43.01 44.19 44.02 42.41 42.14 42.33
58.54 58.15 58.33 58.60 58.89 59.16 59.55 59.64 56.96 58.48 58.59 59.14 53.56 49.45 44.79 52.74 49.16 50.01 50.18 49.75 50.12 49.80 48.62 51.08 48.67 44.05 43.39 38.49 35.48 35.50 31.85 34.39 38.68 43.32 41.53 38.98 35.71 42.75 45.01 42.87 43.64 41.47 41.37 41.44 41.01
58.54 58.37 58.64 58.91 59.04 59.14 59.45 59.40 57.02 56.46 56.53 57.19 54.41 43.57 46.06 45.74 48.19 49.37 48.24 50.59 47.68 46.74 45.71 45.03 42.50 38.13 37.03 35.23 29.54 32.79 32.39 35.86 35.17 40.74 39.94 36.92 37.47 40.41 43.51 43.19 42.38 39.41 39.02 39.76 39.65
58.80 58.96 59.30 59.41 59.58 59.98 57.36 51.89 49.98 48.38 48.77 47.77 47.27 44.97 46.77 48.13 49.74 47.65 48.98 47.42 47.18 43.71 38.37 40.81 35.91 33.33 36.57 38.02 37.69 35.70 34.93 33.83 36.95 41.82 37.77 38.68 37.58 40.53 42.97 42.35 41.78 38.58 39.07 39.26 39.20
59.47 59.83 60.21 59.93 59.84 59.54 55.21 49.07 47.00 48.20 45.39 51.16 51.86 51.69 49.29 48.99 45.24 45.87 48.02 43.09 42.26 38.04 39.90 37.07 34.16 39.96 41.08 40.66 39.39 37.23 34.81 34.13 37.72 41.17 38.36 38.35 37.58 40.61 42.06 42.19 41.14 39.57 38.36 38.70 38.56
59.69 59.49 59.59 59.58 59.26 56.73 51.22 48.51 50.76 48.26 42.06 47.33 48.81 48.69 46.90 48.38 45.33 44.30 45.96 43.44 39.97 37.93 38.04 35.34 39.68 42.76 41.49 39.45 37.60 35.65 34.42 34.58 35.27 37.78 37.41 34.75 34.10 38.29 41.33 39.90 40.45 39.87 39.73 39.16 37.87
59.64 59.42 59.16 58.86 54.93 54.66 50.36 50.91 51.08 47.65 37.56 42.47 44.13 43.94 45.47 45.76 41.96 45.10 46.01 43.76 41.18 38.54 38.16 37.18 41.58 40.60 38.91 38.05 38.52 33.84 38.48 38.03 36.58 32.25 28.95 35.23 26.30 34.73 37.77 36.25 37.40 36.95 36.17 36.38 36.82
59.08 59.20 59.00 58.38 54.42 53.17 51.39 51.11 50.01 46.17 28.91 42.17 41.49 47.81 45.01 42.21 41.77 41.38 44.26 42.09 38.42 39.23 38.22 37.77 37.45 35.98 36.13 37.99 39.23 36.37 37.71 35.60 34.65 31.50 29.81 31.09 27.56 32.78 35.66 33.59 34.84 34.92 35.69 35.59 35.86
58.14 58.36 58.35 57.92 55.94 54.37 52.22 51.11 48.34 38.73 31.02 38.64 40.71 40.59 39.37 40.09 40.15 41.34 40.92 41.23 40.93 37.80 37.35 37.62 38.20 37.90 38.62 39.06 39.02 38.50 35.56 34.56 32.61 31.04 24.47 31.13 30.33 30.39 32.57 35.15 34.28 35.03 35.29 35.71 35.33
57.28 57.33 56.82 56.72 54.09 53.18 52.05 50.20 40.75 34.33 43.79 37.70 37.29 39.25 38.71 37.54 37.90 39.01 37.01 34.34 34.51 31.71 30.97 35.59 36.84 37.50 38.86 35.27 36.73 35.29 32.03 26.19 23.47 21.89 23.45 32.08 28.91 33.01 35.17 37.15 36.77 34.26 33.75 33.91 34.23
56.60 56.89 55.79 55.49 52.50 52.67 51.23 45.96 34.23 40.56 39.54 41.69 40.36 39.89 38.51 38.42 37.77 37.75 36.44 34.83 37.74 35.52 32.37 31.80 30.53 36.67 37.97 37.13 34.89 34.14 35.10 27.24 20.24 20.35 22.19 30.71 26.12 32.44 34.24 35.20 35.16 34.56 33.35 33.49 33.22
56.08 56.15 55.03 54.09 52.72 54.10 49.29 37.46 37.63 39.34 43.24 41.51 41.36 38.03 37.44 40.43 39.94 37.29 36.18 36.62 39.98 38.92 34.56 32.04 32.02 37.02 38.02 37.72 38.82 34.43 31.77 35.53 29.10 22.40 22.18 27.59 31.75 33.94 34.47 32.86 32.94 32.50 32.56 31.82 32.52
51.24 50.15 51.11 55.20 54.32 52.30 44.78 39.34 40.68 44.66 43.00 43.22 38.09 40.47 34.70 38.13 37.73 35.73 36.44 37.68 37.54 38.49 38.94 35.31 30.37 36.64 35.55 37.25 37.28 36.49 38.63 29.42 29.21 17.14 17.69 25.04 26.52 28.28 30.93 30.15 31.03 30.36 30.09 30.85 31.84
47.95 44.94 49.22 52.96 53.55 48.06 38.30 39.57 41.88 44.46 44.47 40.66 38.22 38.02 37.02 36.96 38.20 35.85 37.41 37.34 38.59 36.37 39.16 37.03 34.59 32.34 35.37 33.50 33.27 33.08 30.63 32.19 32.83 28.84 21.53 17.35 23.70 32.79 32.58 31.28 29.81 30.04 30.99 30.39 30.29
46.18 40.57 50.67 53.05 41.20 41.90 38.24 40.38 42.38 41.39 44.02 42.66 40.39 39.30 37.17 37.69 36.47 36.04 36.45 39.03 41.15 40.13 36.01 37.46 34.79 25.73 31.04 35.32 36.42 35.31 33.24 33.52 26.02 23.49 25.08 26.49 26.43 33.72 32.24 32.10 31.90 30.96 31.81 31.06 30.73
42.55 42.57 51.19 50.61 36.06 36.89 40.92 40.83 42.37 40.42 40.14 40.37 39.24 40.50 40.55 37.47 34.52 36.56 38.00 39.75 41.19 39.89 38.07 38.51 30.59 19.90 22.77 29.32 34.71 32.15 32.85 33.06 33.17 31.41 26.33 23.98 22.84 32.68 30.34 30.20 31.30 30.08 30.46 31.17 29.79
41.92 36.49 42.56 45.62 43.29 38.74 38.14 37.84 37.60 41.72 39.48 40.51 39.03 39.79 37.71 35.91 37.36 34.30 34.90 38.76 39.00 39.20 41.21 40.08 33.15 24.74 21.05 22.85 29.56 25.22 27.79 28.46 29.59 19.96 20.42 22.77 25.39 30.24 31.47 30.83 31.77 32.65 33.09 32.67 30.07
40.87 36.57 39.31 34.21 38.48 39.07 38.68 37.06 35.93 35.31 39.54 40.00 37.37 37.31 36.32 34.01 33.72 33.47 35.43 36.02 37.50 40.08 37.39 35.05 23.79 28.03 29.13 29.97 28.70 27.54 26.58 27.01 25.14 26.33 21.88 24.90 24.43 28.92 30.80 26.91 26.12 26.47 31.13 30.65 29.43
35.69 34.80 36.26 36.08 38.46 38.87 37.85 35.06 35.12 35.30 37.25 35.50 35.01 37.01 37.22 34.15 32.92 27.61 31.47 31.46 31.22 34.09 32.93 33.89 21.02 25.42 19.23 27.01 26.53 23.83 25.84 25.85 25.59 25.13 24.29 24.72 23.75 31.16 24.48 26.19 26.57 26.56 27.07 26.22 26.04
37.59 37.12 35.56 33.93 32.66 34.84 34.86 35.66 35.14 36.89 34.88 35.93 37.16 35.06 32.30 31.15 32.27 32.70 32.57 31.71 31.73 29.53 27.58 26.12 21.05 13.58 11.40 22.71 20.20 11.87 20.50 23.21 24.25 25.55 23.69 19.32 23.44 21.10 23.48 25.60 23.51 23.47 24.91 25.53 25.94

GFSSW_sfc_wetblb_024.txt.gz
Wetbulb
59.25 59.50 59.77 59.89 59.92 60.16 60.43 60.59 60.50 60.49 60.46 60.46 60.40 60.27 60.33 60.22 59.26 56.79 50.46 56.13 56.97 63.92 60.26 52.47 50.80 50.44 50.10 48.45 48.07 43.91 37.25 34.43 36.96 37.40 38.66 42.86 42.09 43.83 43.24 41.98 42.68 45.18 46.60 44.67 47.79
58.77 59.11 59.49 59.72 59.81 59.99 60.29 60.49 60.55 60.53 60.69 60.62 60.46 60.23 60.12 60.04 54.43 51.30 59.42 64.94 65.27 64.61 52.29 49.41 47.25 48.47 45.66 46.58 46.46 41.11 35.61 37.71 41.03 40.51 39.76 43.14 41.50 42.18 42.15 41.81 40.75 41.44 44.79 44.66 47.00
58.97 59.16 59.38 59.58 59.66 59.92 60.29 60.62 60.69 60.77 60.71 60.66 60.38 60.34 60.13 58.30 48.74 49.46 61.27 63.92 64.82 61.36 53.29 51.44 49.79 48.27 43.38 44.50 43.80 41.86 38.16 41.39 43.60 44.07 43.44 43.26 42.81 42.58 40.35 41.23 43.11 43.26 44.12 45.19 44.74
59.54 59.36 59.31 59.34 59.39 59.68 60.22 60.76 60.85 61.01 60.63 60.22 60.10 60.24 59.68 53.91 39.05 52.07 62.00 63.52 63.71 55.43 52.05 49.64 47.15 43.87 41.53 41.01 45.13 39.71 44.44 44.25 45.80 45.46 43.43 41.83 44.12 43.54 42.39 44.79 46.23 45.45 44.69 44.06 44.62
59.35 59.17 59.11 59.18 59.25 59.69 60.34 60.94 61.06 60.94 60.14 59.41 59.44 59.76 53.75 46.16 47.20 57.63 62.32 62.25 54.78 52.91 49.33 48.01 45.11 44.10 40.32 41.48 42.11 40.80 42.33 44.68 45.87 44.89 43.08 43.66 42.73 41.65 43.35 45.82 45.62 45.12 44.23 42.34 42.20
59.32 58.95 58.72 58.72 59.14 59.73 60.26 60.68 61.01 60.26 58.69 58.98 59.07 58.96 48.68 41.91 55.42 58.86 56.74 54.24 52.61 50.63 48.28 48.05 45.91 46.32 43.06 41.65 40.50 41.79 42.49 42.99 43.61 43.76 42.84 42.24 40.21 41.59 44.32 42.66 44.31 44.00 41.33 41.02 41.30
59.37 58.85 58.49 58.49 59.04 59.72 60.29 60.65 60.49 58.86 59.51 59.34 58.90 56.24 48.77 46.19 56.17 57.27 55.68 52.51 51.72 50.26 47.97 48.71 48.04 45.35 43.92 41.20 44.37 42.54 39.73 41.04 41.43 41.59 41.63 42.20 38.79 40.23 44.79 43.20 42.22 40.98 39.02 40.08 40.38
59.17 58.60 58.26 58.34 58.86 59.48 60.09 60.33 60.18 58.15 59.24 58.20 59.01 52.09 42.68 50.01 51.97 54.87 52.83 50.24 51.50 50.77 49.63 48.64 48.50 46.65 43.52 43.73 42.42 38.31 36.64 33.66 40.17 40.66 40.88 40.15 36.02 42.10 44.12 40.94 40.79 38.26 36.86 38.42 39.26
58.59 58.10 58.18 58.43 58.67 59.14 59.61 59.87 59.34 57.84 58.67 59.22 52.20 47.65 43.20 52.30 48.19 49.12 49.23 48.74 48.65 48.24 47.70 50.52 47.36 42.85 42.26 37.09 34.07 34.05 30.38 32.55 37.70 41.55 39.94 37.82 35.91 41.87 44.22 41.40 38.06 36.52 37.38 38.11 37.82
58.33 58.13 58.36 58.67 58.89 59.24 59.69 58.39 56.82 56.36 56.26 56.65 54.41 43.35 45.26 44.03 46.96 48.05 47.13 49.36 46.52 45.46 44.71 44.11 40.85 37.10 35.57 33.82 28.77 31.21 30.89 33.62 33.85 38.72 38.14 37.08 36.97 40.11 42.54 41.61 38.20 36.24 36.54 36.50 36.66
58.33 58.41 58.78 59.01 59.45 60.10 57.88 51.69 49.11 48.01 49.00 46.50 45.08 43.93 45.53 46.75 48.49 46.30 47.71 46.63 46.05 42.72 36.75 39.38 35.28 32.47 35.53 37.33 35.93 34.39 33.34 32.89 35.44 40.15 36.46 37.05 36.05 39.51 41.53 39.74 36.75 36.31 36.64 36.53 36.53
58.54 58.78 59.50 59.95 59.98 59.71 54.88 48.90 47.43 47.25 44.88 50.04 49.29 48.50 47.60 47.58 44.20 44.78 47.41 42.47 41.22 37.02 38.73 36.14 33.00 38.86 38.88 38.20 37.08 34.82 32.94 32.86 36.33 38.97 36.63 36.69 36.62 39.72 39.32 37.92 37.58 36.82 36.25 35.95 35.88
58.70 59.08 59.66 59.64 59.40 56.61 51.68 48.88 49.81 47.34 42.32 46.02 48.30 48.68 46.51 47.30 44.53 44.15 45.42 42.23 39.06 36.48 36.96 34.68 38.79 41.00 39.33 37.19 35.79 34.64 33.14 33.35 34.70 36.15 35.20 33.87 33.24 36.79 36.32 37.30 37.93 37.43 36.90 36.11 34.60
59.04 59.08 59.27 58.92 55.46 54.52 49.71 50.14 50.11 47.28 37.29 41.10 43.38 43.48 44.35 45.81 41.62 44.06 44.86 42.38 38.79 37.28 36.50 35.70 40.10 39.23 36.60 36.36 37.41 33.35 37.88 36.89 35.07 31.64 28.62 33.40 25.21 32.60 35.20 34.18 34.91 34.48 33.68 33.44 33.41
58.81 58.86 58.47 58.95 53.49 52.50 51.72 50.03 49.27 46.21 29.03 41.60 40.94 46.78 43.96 42.88 41.02 40.15 43.03 41.16 37.45 38.20 37.41 36.59 36.09 35.39 35.85 37.34 38.56 36.17 36.57 34.77 33.13 30.01 27.90 29.03 26.01 30.34 33.59 31.41 32.32 32.36 33.24 32.89 32.86
58.07 58.28 58.16 58.16 56.61 54.16 50.66 50.22 48.32 38.95 31.16 37.74 39.59 39.14 37.99 38.65 38.88 40.04 39.76 40.45 39.92 36.77 35.90 36.75 37.37 37.15 37.36 37.35 37.30 37.44 34.65 33.52 31.07 29.48 23.56 29.45 28.54 28.74 30.56 33.19 31.99 32.47 32.81 33.23 32.63
57.78 57.74 57.38 58.62 54.97 52.06 51.74 50.68 39.89 34.07 41.97 36.48 35.91 38.21 37.40 35.83 36.35 37.39 35.57 33.85 33.17 30.43 30.59 34.42 35.32 36.58 37.39 34.37 35.22 34.35 31.80 25.57 22.84 21.44 23.32 30.33 26.93 30.57 32.03 34.04 34.08 32.04 31.88 32.10 31.93
57.65 57.64 56.71 56.77 53.28 53.07 53.26 46.46 34.37 39.36 38.26 39.45 38.05 36.87 35.09 37.06 36.12 36.20 34.19 32.09 35.01 34.16 31.03 31.08 30.00 35.73 37.31 36.30 34.84 32.44 33.05 25.92 18.83 19.63 23.00 28.17 25.22 29.63 31.53 32.92 33.73 33.20 32.17 32.57 32.30
57.19 56.65 54.67 52.77 53.27 54.43 50.01 38.64 37.72 40.76 42.77 39.67 39.83 36.51 36.20 37.18 36.81 34.17 33.24 33.40 37.48 36.52 34.00 30.49 31.40 35.36 36.31 36.86 37.94 32.80 30.40 33.55 27.60 16.72 20.32 26.41 27.27 31.00 31.84 30.19 30.59 30.63 31.22 30.58 31.21
53.51 52.30 52.73 53.12 54.93 52.84 46.24 40.65 41.04 44.77 43.28 42.13 37.01 38.65 34.05 37.17 36.44 34.85 35.00 36.94 37.61 37.85 38.73 35.62 29.85 35.57 35.26 36.76 35.79 34.40 37.02 28.73 27.39 16.03 16.52 22.96 25.47 26.85 28.35 28.51 29.83 29.80 29.70 29.90 30.45
50.56 47.31 50.43 53.98 54.49 48.29 40.71 40.58 42.88 44.82 44.46 41.01 38.85 38.08 37.04 36.48 37.43 34.13 35.35 36.85 37.66 36.33 38.59 36.31 34.08 30.91 33.76 32.57 32.77 31.97 30.11 30.98 31.30 26.37 18.60 15.16 22.55 30.42 31.04 30.92 29.81 30.19 30.73 29.83 30.07
47.40 42.06 50.19 53.16 43.90 43.58 39.45 41.81 42.61 41.83 44.02 41.62 41.35 38.51 37.07 38.14 35.40 34.60 35.22 37.73 39.03 38.69 35.52 37.28 34.29 25.43 30.65 33.86 35.08 32.52 32.09 31.93 24.20 21.98 24.46 24.10 25.18 33.29 33.42 31.94 31.31 30.32 31.28 30.16 29.92
43.80 42.86 50.34 50.20 38.64 38.39 41.31 41.22 42.07 39.75 40.13 41.12 39.75 40.58 40.01 37.81 35.15 35.76 36.57 38.39 39.57 38.91 36.95 37.59 30.87 17.50 23.30 29.71 33.23 30.94 32.60 32.34 31.25 27.24 20.02 21.19 23.13 32.07 30.45 30.58 31.45 30.21 29.91 30.40 29.56
42.27 36.97 43.03 45.55 43.66 41.09 39.35 39.14 39.17 43.11 41.32 41.50 40.12 40.42 37.91 35.96 37.53 34.43 34.36 37.26 38.08 39.66 41.51 40.11 31.10 26.63 25.58 24.60 29.67 25.40 28.17 28.52 28.86 19.74 20.78 24.32 24.90 29.47 29.78 30.32 30.86 31.69 30.87 29.60 29.30
41.48 38.12 40.67 35.55 38.98 39.55 40.39 39.52 37.89 35.95 41.34 41.39 37.08 37.85 36.69 33.20 33.33 33.33 34.45 35.14 36.28 39.54 36.27 36.20 30.81 28.20 28.68 30.76 30.12 28.52 27.87 26.94 26.04 25.83 21.86 24.49 22.82 28.22 27.99 27.90 28.59 28.86 27.97 30.93 30.39
37.36 35.64 37.84 36.66 40.22 39.24 38.85 36.20 36.33 38.38 37.81 35.25 35.12 36.99 36.50 34.62 34.33 31.54 34.62 34.23 32.67 34.31 33.47 32.96 22.97 26.54 20.51 26.76 27.68 24.81 26.84 26.07 26.67 26.84 25.36 26.41 25.14 31.60 29.10 26.05 25.02 25.38 26.55 29.87 27.98
38.53 38.19 37.68 35.98 35.26 36.01 36.10 35.88 36.68 37.81 36.47 37.21 37.31 35.05 34.93 36.79 35.14 33.07 33.27 33.18 33.74 32.40 30.27 28.90 23.10 18.41 15.76 20.83 20.08 11.32 19.18 23.98 25.55 25.81 24.43 19.84 24.19 21.97 24.54 25.72 24.68 24.37 25.18 24.90 24.69

GFSSW_sfc_wetblb_027.txt.gz
Wetbulb
59.00 59.24 59.61 59.81 59.87 60.05 60.30 60.51 60.51 60.49 60.68 60.77 60.70 60.50 60.32 60.19 59.01 54.88 47.07 54.85 56.57 63.51 59.68 50.81 49.61 49.30 48.85 47.38 46.57 42.02 35.89 33.01 35.20 35.66 38.22 41.92 42.01 42.08 42.25 40.35 41.66 43.27 45.93 43.60 47.29
58.63 59.01 59.37 59.68 59.75 59.86 60.18 60.47 60.41 60.59 60.92 60.91 60.77 60.47 60.20 59.98 52.82 49.83 58.31 64.22 64.73 63.80 50.58 47.62 45.81 47.35 44.87 45.36 45.06 39.63 34.01 36.09 39.51 39.82 39.22 41.96 40.33 41.63 41.71 41.92 39.69 40.15 44.38 44.03 46.00
58.87 58.93 59.18 59.42 59.52 59.78 60.12 60.45 60.73 60.89 61.04 60.73 60.39 60.25 60.11 58.00 47.33 47.12 62.00 63.36 64.57 60.69 51.43 50.09 48.56 46.76 41.89 44.99 43.29 39.79 36.72 40.01 42.27 42.74 42.15 41.44 40.64 41.81 39.37 39.69 42.02 41.48 43.40 44.04 43.48
59.45 59.27 59.17 59.14 59.28 59.59 60.10 60.78 60.96 61.16 60.89 59.79 59.75 59.86 59.55 52.77 40.34 50.33 61.92 62.99 63.71 53.99 50.76 48.55 46.04 42.44 39.73 39.30 43.41 39.83 42.57 42.03 44.25 44.37 42.21 40.75 42.52 42.11 41.00 43.81 44.83 42.67 41.96 40.66 40.74
59.21 59.11 59.11 59.08 59.08 59.44 60.19 60.92 61.21 61.13 59.91 59.02 59.24 59.44 52.67 44.73 46.61 56.73 61.88 61.03 53.59 51.48 48.30 47.10 44.35 43.16 39.53 40.49 40.85 39.55 41.16 43.11 44.82 43.52 42.21 42.26 41.86 40.40 42.18 44.26 43.13 42.52 42.12 40.15 39.72
59.11 58.94 58.80 58.73 59.00 59.45 60.07 60.72 61.20 60.96 59.04 59.54 59.43 58.76 46.84 40.79 54.14 57.26 55.08 51.64 50.96 49.01 47.14 47.31 45.51 45.51 41.58 40.20 39.97 41.07 41.70 42.06 42.81 42.92 41.08 40.82 38.91 39.55 43.03 42.87 41.24 41.16 38.85 38.28 38.75
59.27 58.91 58.60 58.57 58.92 59.50 60.04 60.62 60.70 60.61 58.84 59.30 58.84 55.52 46.78 45.24 54.94 55.99 53.64 50.73 50.66 49.41 46.88 47.41 46.98 44.18 42.43 39.69 42.56 40.96 38.72 40.01 40.48 40.30 40.05 40.99 37.38 39.07 43.64 41.10 39.07 37.72 36.47 37.71 38.12
59.16 58.77 58.43 58.37 58.66 59.19 59.89 60.23 60.31 60.11 58.84 58.16 58.83 51.20 43.40 49.27 52.19 53.83 51.44 49.64 50.61 49.63 48.61 47.58 47.37 45.65 42.31 42.34 40.68 37.03 35.33 32.71 38.45 39.56 39.50 39.30 35.85 41.21 42.33 39.36 37.18 35.86 34.90 36.06 37.18
58.67 58.26 58.24 58.26 58.36 58.77 59.57 60.03 58.63 58.30 58.78 59.11 51.55 46.38 43.51 52.16 47.96 48.58 48.62 47.89 47.72 46.93 47.18 49.84 46.32 41.36 41.06 35.92 33.15 33.17 29.62 30.86 36.43 39.82 38.67 37.07 35.04 40.98 41.74 39.41 35.60 34.45 35.09 35.86 35.84
58.34 58.08 58.12 58.32 58.50 58.95 59.73 59.22 57.08 56.18 55.86 55.97 53.36 43.15 45.03 43.30 46.03 47.04 46.43 48.31 45.47 44.56 44.04 43.41 39.65 36.24 34.78 33.22 29.16 30.12 29.87 31.85 32.55 36.73 37.40 35.25 36.30 39.65 41.03 39.62 35.15 33.88 33.73 34.45 34.87
58.23 58.13 58.32 58.51 58.93 60.00 57.87 51.72 48.41 47.56 48.77 45.80 44.11 43.75 44.41 45.66 47.28 44.85 46.84 46.18 44.78 41.54 36.39 38.11 34.58 32.36 35.30 36.40 34.36 32.75 31.68 31.94 33.42 38.45 35.14 35.73 35.03 38.67 39.61 36.61 33.73 33.71 33.64 33.94 34.22
58.26 58.29 58.56 58.89 59.79 59.76 54.67 49.52 47.81 48.00 44.95 49.18 48.07 46.03 46.49 46.36 43.12 43.81 46.59 41.94 40.04 36.27 37.39 35.09 32.06 37.86 37.63 36.79 35.88 32.88 30.82 31.26 35.08 37.63 35.97 35.66 35.92 37.35 36.15 35.27 34.98 34.15 33.38 33.18 33.03
58.07 58.01 58.36 59.30 59.48 57.02 52.68 49.92 49.31 47.29 42.65 45.80 47.84 47.88 46.10 46.32 44.08 44.07 45.06 41.49 38.33 35.54 35.73 33.95 37.87 39.58 37.92 35.42 34.20 33.07 31.83 31.79 33.73 34.99 33.98 32.68 32.15 33.73 34.37 35.19 35.32 34.63 34.16 33.28 32.04
58.10 57.94 58.42 59.03 56.90 54.69 50.03 50.50 49.55 47.85 37.75 40.64 42.92 43.92 44.00 45.69 41.54 43.68 43.98 41.69 37.49 36.63 35.50 34.82 38.47 38.32 35.08 35.17 35.92 32.01 36.69 36.29 34.41 31.43 28.12 31.88 25.10 31.37 32.46 31.88 32.67 32.18 31.05 31.05 31.32
57.96 58.06 58.60 58.98 53.85 51.13 52.37 50.01 48.53 46.30 28.32 40.85 40.53 45.59 42.76 43.15 40.58 39.31 42.16 40.67 36.75 37.03 36.24 35.72 35.77 33.88 34.39 35.95 37.74 35.46 36.04 34.43 32.44 29.70 27.78 28.54 25.77 29.08 31.77 29.54 30.40 30.76 30.93 30.70 30.85
57.52 57.87 58.17 57.83 57.17 54.72 50.27 49.81 48.29 38.44 29.19 36.66 39.14 38.28 38.09 38.21 38.16 39.00 38.97 40.23 39.60 36.49 35.29 36.36 36.55 36.59 37.23 35.74 37.27 36.98 33.92 32.61 30.29 28.85 22.90 28.95 28.56 26.98 29.68 31.40 30.34 31.21 31.11 31.49 30.83
57.29 57.52 57.57 58.96 55.03 52.47 50.79 49.91 39.64 34.17 40.70 35.84 34.56 36.65 35.59 34.55 35.42 36.48 35.07 33.66 32.60 30.66 30.64 33.22 34.67 35.27 36.26 33.66 34.02 33.37 31.52 25.32 22.93 21.38 23.32 28.37 25.36 29.36 30.66 31.65 33.02 31.18 30.61 30.75 31.02
57.28 57.39 57.53 58.87 54.63 51.77 52.03 45.76 34.39 39.16 37.95 37.99 36.26 35.47 33.99 35.46 34.68 35.06 32.67 31.54 33.93 32.57 29.53 30.07 29.37 35.07 36.83 35.82 33.22 31.43 32.30 26.02 19.26 18.97 22.51 27.22 25.10 30.05 30.11 31.36 33.45 32.85 31.83 30.82 30.05
57.24 57.21 57.59 58.47 53.83 53.23 49.50 39.53 37.97 41.07 41.99 37.35 37.35 32.71 32.28 35.11 35.03 33.02 31.70 31.46 34.54 34.89 33.15 29.68 30.92 34.40 34.48 35.85 37.18 31.75 29.54 32.78 26.70 14.97 19.41 26.35 27.49 29.91 30.23 29.03 29.75 30.17 30.21 29.87 30.55
55.86 55.10 55.01 55.16 53.83 52.70 46.73 41.81 41.48 44.91 43.98 41.21 34.55 37.10 31.55 35.22 34.52 31.91 31.33 35.35 36.56 36.07 36.75 34.52 29.33 33.82 34.01 34.78 35.05 33.51 36.12 28.51 26.81 17.18 17.07 22.90 24.45 26.98 26.97 27.73 29.05 28.68 29.12 29.97 30.47
54.78 49.04 51.90 54.32 53.89 48.99 41.86 42.60 43.35 45.43 44.41 41.36 37.46 37.17 36.18 35.96 36.30 32.26 34.62 36.18 37.63 35.28 37.62 35.78 33.56 30.54 33.27 32.06 31.46 31.59 30.22 30.35 30.46 26.02 18.98 14.55 23.67 29.40 30.81 30.37 29.31 30.13 30.97 30.08 29.42
48.54 44.54 51.26 53.72 44.43 45.35 43.39 43.19 44.11 43.22 44.03 42.87 41.19 40.32 38.47 37.31 36.48 34.78 34.80 36.98 38.57 38.63 34.96 37.24 33.37 24.63 29.81 32.48 33.16 31.61 31.63 31.60 27.07 23.18 23.19 23.08 26.00 32.24 31.72 32.62 32.18 31.17 31.36 30.64 30.07
44.61 43.52 50.25 50.46 41.20 39.08 41.74 42.04 43.02 40.41 41.30 41.56 40.70 41.32 40.54 37.58 35.31 34.72 35.27 37.76 38.06 38.42 36.59 37.50 30.43 19.77 26.71 29.78 30.61 29.82 30.63 30.45 28.94 24.99 18.13 20.97 23.19 32.20 30.50 30.60 31.41 30.99 30.47 30.37 30.01
43.13 38.44 43.05 45.19 43.85 43.22 40.14 39.85 39.29 42.91 41.35 42.54 41.18 40.80 38.63 37.08 38.74 34.83 34.11 37.00 37.55 38.04 41.45 41.16 33.06 30.59 27.91 27.10 29.38 25.76 28.97 28.88 28.04 24.38 24.73 26.55 27.84 28.00 30.13 30.81 30.69 30.05 30.35 30.44 29.66
42.22 39.18 41.13 36.64 39.42 40.99 41.84 40.69 39.19 37.35 41.54 41.93 38.41 40.05 39.02 35.53 36.03 35.22 34.84 35.14 35.68 38.92 36.36 36.44 31.07 28.59 29.98 29.06 29.45 27.78 26.95 26.59 25.68 27.22 25.56 28.00 26.36 28.37 30.31 29.60 29.69 31.17 30.71 30.03 29.49
37.63 36.61 38.38 38.09 40.98 40.14 40.42 38.41 38.68 40.26 39.24 38.31 38.04 38.54 39.51 37.17 36.19 32.24 34.44 33.83 32.85 31.47 33.03 31.93 26.07 28.42 25.60 27.21 28.96 27.66 28.95 29.37 29.44 28.15 26.28 26.08 25.97 31.12 28.45 28.08 25.87 26.86 26.87 28.41 30.26
39.00 38.84 38.47 36.22 36.53 38.31 37.35 38.72 38.75 40.95 38.07 38.42 39.38 37.22 37.12 38.67 37.43 33.85 35.90 35.25 34.80 32.29 29.89 29.10 26.03 22.15 25.19 22.26 22.20 18.48 20.73 25.82 27.21 27.52 27.38 23.44 28.09 22.34 25.17 25.72 25.60 25.45 25.43 25.73 27.07

GFSSW_sfc_wetblb_030.txt.gz
Wetbulb
58.56 58.73 59.15 59.56 59.66 59.79 60.13 60.49 60.49 60.69 61.10 61.27 61.14 60.76 60.49 60.13 58.78 53.65 45.22 53.62 55.30 63.09 59.37 49.35 49.01 48.38 48.14 46.39 44.74 40.16 34.75 31.94 35.40 35.26 37.28 40.14 40.35 40.76 41.39 40.16 41.59 42.12 44.54 42.81 46.03
58.25 58.60 59.07 59.37 59.46 59.73 60.15 60.44 60.49 60.87 61.26 61.01 60.71 60.48 60.30 59.77 51.50 47.85 57.46 62.91 64.33 63.07 48.98 46.35 44.73 46.16 44.21 44.33 43.69 38.25 32.79 34.61 37.78 40.16 39.87 40.10 40.16 40.22 41.39 40.59 41.52 40.67 43.10 43.19 41.80
58.75 58.74 59.00 59.20 59.31 59.64 60.06 60.49 60.87 61.09 61.34 60.16 59.83 59.92 59.86 57.57 46.22 45.28 61.55 62.73 64.49 59.92 49.89 48.93 47.68 45.57 41.17 43.79 42.89 38.86 35.24 37.73 40.50 41.22 40.98 40.26 39.43 40.30 41.15 38.33 38.89 40.56 41.25 40.22 40.47
59.30 59.06 58.96 59.12 59.19 59.45 60.02 60.78 61.15 61.32 61.08 59.23 59.44 59.51 59.32 50.99 40.26 48.84 61.44 63.16 63.85 52.35 49.62 47.72 45.87 42.15 38.69 39.87 41.95 38.67 40.80 40.56 43.07 42.79 41.25 39.73 41.29 39.51 40.36 39.76 42.01 39.60 39.80 38.92 38.46
59.13 58.93 58.98 58.97 58.99 59.33 59.98 60.63 61.25 61.25 60.79 59.23 59.71 59.36 51.76 43.25 46.13 55.59 61.15 59.80 52.74 49.91 47.15 45.60 43.13 41.64 37.40 39.54 40.04 39.83 39.62 41.52 42.84 42.31 41.27 41.36 40.49 38.82 40.86 40.89 40.88 40.47 39.40 37.60 37.33
58.96 58.70 58.76 58.80 58.93 59.26 59.85 60.48 61.09 60.97 60.53 59.20 59.50 58.78 45.03 40.43 52.88 55.35 52.87 50.30 50.02 48.15 45.85 45.83 44.18 44.57 41.05 39.04 38.43 39.08 40.10 40.83 41.56 40.65 40.08 40.10 37.83 38.53 37.90 39.09 38.90 38.41 36.30 36.21 36.68
59.04 58.76 58.64 58.69 58.96 59.32 59.82 60.35 60.55 60.54 59.79 59.15 58.51 54.79 44.54 45.73 54.55 54.66 52.07 49.00 49.31 48.06 45.95 46.27 46.33 43.71 42.37 38.69 41.32 39.53 37.29 38.60 38.44 38.60 39.19 39.94 36.52 37.96 38.74 39.01 37.01 35.46 34.61 35.74 36.08
58.84 58.53 58.52 58.51 58.64 58.94 59.47 60.13 60.43 59.80 58.77 58.31 58.49 49.58 43.93 48.05 52.23 52.96 50.10 48.85 49.15 48.50 47.86 46.63 46.60 44.87 41.57 41.15 39.28 35.91 34.31 32.43 36.92 38.22 38.31 38.71 35.38 39.50 39.36 38.46 35.33 34.41 33.36 34.37 35.39
58.32 58.12 58.34 58.32 58.14 58.45 59.24 60.01 57.56 58.26 58.80 58.66 50.05 45.10 43.50 51.49 47.94 48.43 47.83 47.66 46.67 46.05 46.79 48.66 45.26 40.21 39.97 35.54 32.72 32.38 30.28 29.87 35.28 38.41 37.34 36.13 35.07 39.11 38.90 37.55 33.80 32.80 33.30 34.20 33.79
58.22 58.03 58.22 58.22 58.12 58.49 59.48 59.43 57.08 55.41 55.25 55.02 51.68 43.46 44.98 42.99 45.50 46.30 46.09 47.33 44.46 44.01 43.48 42.70 38.83 35.51 33.93 33.26 29.43 30.24 28.93 30.53 31.77 35.14 36.13 33.89 35.93 39.46 38.87 36.81 32.98 31.86 32.03 32.32 32.34
58.21 58.14 58.18 58.15 58.33 59.49 57.99 51.92 48.21 46.87 47.40 45.67 44.35 43.96 43.77 44.69 46.33 43.92 46.00 45.34 43.45 40.66 36.26 36.88 34.36 32.42 34.85 35.60 34.03 32.54 30.68 31.64 32.44 36.76 34.46 35.25 34.93 38.01 36.11 33.43 31.91 31.73 31.63 31.46 31.75
58.22 58.23 58.27 58.34 58.87 59.83 55.74 49.67 47.88 47.72 44.56 48.76 47.50 45.05 45.56 45.07 41.52 42.65 46.04 41.38 38.89 35.37 36.19 33.92 31.62 37.25 36.72 36.04 34.72 32.17 30.63 30.55 33.76 36.15 35.46 34.25 34.87 35.23 34.51 33.32 33.42 32.14 31.29 31.05 30.64
58.05 57.85 57.92 58.23 59.34 58.21 54.03 50.67 48.91 47.45 42.98 45.74 47.38 46.93 47.26 45.48 42.85 42.51 44.53 40.58 36.86 34.76 34.42 32.89 36.78 37.93 36.81 33.61 32.79 31.31 30.69 30.19 32.95 33.31 33.45 31.09 31.32 31.30 32.58 33.14 33.41 33.03 32.15 31.43 30.36
58.11 57.60 57.45 58.34 56.75 55.51 52.50 53.92 48.96 47.97 38.26 40.44 42.82 44.40 43.89 45.04 41.45 43.25 43.14 41.31 36.59 35.95 34.84 33.76 37.18 37.56 33.94 33.85 34.19 29.91 35.02 34.88 32.79 31.06 28.10 30.82 24.94 29.48 30.74 30.51 31.08 30.59 29.57 29.75 30.01
57.80 57.51 57.55 58.83 53.96 52.15 53.05 49.66 47.94 47.11 28.21 40.35 40.78 45.17 42.73 43.17 40.30 39.62 41.69 40.26 35.90 36.12 35.71 35.47 34.74 33.76 33.72 34.91 36.20 33.79 35.40 33.49 31.55 29.16 26.44 27.12 24.80 28.57 30.40 29.13 29.57 29.60 29.63 29.52 29.50
57.32 57.23 57.43 57.84 56.94 53.82 49.79 49.39 48.47 38.95 29.37 36.82 38.56 37.69 38.95 38.42 37.07 38.27 38.54 39.86 39.19 36.05 34.58 35.53 36.01 36.37 36.65 34.77 36.43 35.82 33.72 31.85 29.37 28.12 22.39 29.00 28.28 26.46 28.18 31.03 30.03 30.35 30.04 30.03 29.34
57.05 56.94 56.88 59.10 54.33 51.41 50.01 49.48 39.33 33.79 39.61 35.14 34.24 35.90 36.11 34.66 35.44 35.46 34.58 33.27 32.83 30.62 30.50 32.75 34.15 34.80 35.82 33.10 32.64 32.51 30.84 25.00 22.69 21.76 23.22 27.25 24.86 29.09 31.21 31.36 31.91 31.22 30.04 29.73 29.70
56.94 56.80 56.54 58.80 56.16 51.47 50.57 45.23 34.02 38.85 37.45 36.52 35.73 34.31 33.77 34.82 34.21 34.48 32.92 31.65 34.33 32.15 29.53 29.34 28.11 34.45 36.35 35.10 32.41 30.97 31.25 26.24 19.85 19.39 22.26 26.59 24.50 30.43 29.85 30.74 31.85 32.76 31.10 30.21 29.42
56.68 56.39 56.30 57.84 55.01 52.98 47.68 39.03 38.35 39.74 41.33 35.60 35.26 31.06 30.95 33.91 33.64 32.48 30.91 31.06 34.13 33.85 32.44 28.76 30.23 33.34 33.60 34.32 35.37 30.38 28.48 31.78 25.79 14.61 20.27 26.20 27.89 29.29 29.60 28.60 29.04 29.11 29.70 29.06 28.91
55.29 54.43 54.14 58.51 55.09 52.93 44.73 40.83 41.83 44.37 42.63 39.08 36.11 35.36 29.85 32.28 32.03 31.01 30.40 33.58 34.63 35.44 36.40 34.48 29.50 32.54 32.71 35.42 34.44 33.32 35.15 28.26 26.43 16.55 16.51 23.55 24.25 27.77 28.18 28.22 28.02 28.24 28.78 28.91 29.67
54.77 49.81 54.77 58.80 54.73 48.69 40.48 40.82 44.39 45.82 44.61 40.03 39.22 35.59 33.43 34.07 33.95 30.24 32.15 34.54 36.92 34.59 37.20 35.27 33.83 30.10 32.51 31.02 30.84 31.55 29.84 29.73 30.05 26.36 19.96 15.76 23.79 29.24 30.55 29.31 28.39 29.50 30.47 30.12 30.09
50.88 44.67 52.29 57.01 46.32 46.24 42.86 44.90 45.60 44.36 44.94 42.67 41.39 40.00 36.91 37.23 34.54 32.07 32.91 36.07 39.08 38.13 34.45 36.51 32.72 26.01 29.57 31.60 31.94 30.23 31.12 30.77 27.57 23.28 22.25 22.74 27.07 29.90 30.21 30.68 31.59 31.00 31.31 30.67 30.43
45.67 44.22 50.37 52.75 42.39 42.93 44.71 45.16 45.56 42.59 42.86 41.63 40.33 41.76 40.60 37.22 35.72 35.22 35.74 37.71 38.72 38.77 36.54 37.25 30.88 20.15 25.60 29.22 29.42 28.81 29.91 30.46 28.53 25.56 20.48 25.46 25.43 31.22 28.77 29.38 30.42 29.86 29.94 30.34 30.28
44.20 39.35 43.33 45.09 44.10 42.71 42.72 42.22 41.36 43.30 42.72 43.03 41.60 41.28 38.63 37.23 39.55 37.21 35.18 36.93 37.62 37.81 41.73 41.02 31.36 28.37 27.51 27.44 29.96 26.96 29.20 29.48 30.18 27.35 27.55 27.85 29.55 27.48 29.58 30.66 29.76 30.01 30.42 30.25 29.96
43.72 39.92 42.46 37.54 40.05 40.44 43.01 41.91 40.49 38.64 41.70 43.09 40.02 41.19 40.48 36.28 37.12 36.06 35.57 35.49 36.84 39.65 37.12 37.85 29.72 29.32 29.60 28.71 29.26 29.17 28.92 27.82 27.29 29.99 28.60 30.00 27.50 28.90 31.85 31.50 31.42 30.97 30.18 29.50 29.54
38.98 37.93 38.70 38.88 40.80 39.81 40.34 39.36 39.86 39.63 39.74 38.18 38.15 39.89 40.93 38.16 37.67 35.34 36.48 35.13 34.54 34.58 34.21 33.59 30.34 28.84 24.56 27.54 28.52 26.67 28.36 27.47 29.46 27.32 26.82 25.70 25.49 30.92 30.22 30.62 28.32 29.24 29.85 27.85 27.86
39.13 39.42 38.75 37.69 37.50 38.31 38.40 37.27 38.45 41.12 39.16 40.56 40.45 39.12 38.83 40.62 39.97 36.58 38.52 38.73 38.30 34.91 32.74 31.32 27.38 24.55 26.12 22.78 23.71 23.74 25.78 27.78 27.33 28.15 29.55 24.61 30.69 24.84 25.99 26.79 26.16 26.24 25.82 26.31 27.94

GFSSW_sfc_wetblb_033.txt.gz
Wetbulb
58.47 58.62 59.10 59.43 59.49 59.73 60.20 60.45 60.53 60.95 61.46 61.25 60.83 60.71 60.61 60.31 58.82 53.20 45.06 53.44 55.04 62.69 59.21 49.83 50.06 49.20 49.51 47.95 46.32 43.30 36.63 34.55 37.63 37.90 40.46 43.56 43.28 44.92 45.08 44.82 45.15 45.63 44.31 42.83 44.05
58.13 58.34 58.81 59.16 59.28 59.64 60.12 60.43 60.73 61.19 61.57 60.51 59.98 60.18 60.12 59.83 51.18 47.10 57.66 62.05 64.10 62.57 49.34 47.14 46.01 47.07 45.50 46.30 45.20 39.90 35.28 36.91 40.31 40.43 41.12 42.91 42.84 43.71 44.09 43.60 43.89 45.06 43.76 43.52 43.30
58.49 58.53 58.74 58.99 59.18 59.53 59.98 60.56 61.02 61.36 61.44 59.83 59.85 59.82 59.74 57.02 46.20 45.28 61.41 62.35 64.13 59.27 50.23 49.33 48.37 46.59 43.11 44.52 43.53 40.84 37.27 39.25 42.00 43.21 43.72 42.85 42.47 43.98 43.08 41.75 44.34 44.27 41.88 41.46 41.15
59.11 58.85 58.77 58.88 59.03 59.35 59.92 60.77 61.25 61.41 61.25 59.91 60.17 60.12 59.10 50.03 39.72 48.60 61.48 63.00 63.42 52.22 50.10 47.98 46.39 42.87 40.37 40.03 43.83 39.71 41.67 41.54 44.45 43.98 43.16 42.37 43.51 42.87 42.84 43.11 41.72 40.36 40.27 39.59 39.07
59.07 58.77 58.85 58.85 58.83 59.23 59.84 60.59 61.29 61.23 61.04 59.99 60.21 59.80 50.81 43.68 45.99 55.09 60.56 60.63 53.17 49.77 47.49 46.27 43.92 42.91 39.41 41.04 41.66 41.29 41.20 42.43 43.59 42.97 42.64 42.24 41.95 42.16 41.32 39.81 40.38 39.96 38.94 37.90 37.90
58.82 58.53 58.52 58.77 58.91 59.02 59.55 60.25 60.98 60.90 60.75 59.59 59.75 58.92 44.55 41.10 52.80 54.03 51.77 50.09 49.79 48.29 46.24 46.27 44.87 44.84 41.85 40.49 40.36 40.81 41.15 41.37 41.82 41.74 41.54 41.32 40.16 40.95 39.79 39.36 38.36 37.87 36.63 36.90 36.97
59.00 58.57 58.48 58.71 58.97 59.12 59.42 59.98 60.52 60.80 60.21 59.23 58.51 54.31 43.67 46.70 53.90 53.34 51.04 48.36 49.09 48.00 46.35 46.55 46.51 44.60 43.19 40.16 42.10 40.55 38.60 39.83 39.81 40.05 40.57 41.15 38.25 39.03 39.91 39.20 36.77 35.77 35.69 36.13 36.28
58.80 58.44 58.32 58.52 58.67 58.78 59.16 59.88 60.43 58.82 58.84 58.38 58.46 48.42 44.50 47.66 52.94 52.75 49.95 48.67 48.39 48.19 47.77 47.02 47.06 45.12 42.75 41.88 39.48 37.20 36.38 34.81 38.91 39.66 39.58 40.38 37.51 39.49 38.92 39.38 36.21 35.24 34.75 35.04 35.24
58.25 57.93 58.16 58.42 58.25 58.21 58.91 59.90 58.48 58.35 58.89 58.46 49.45 44.33 43.77 51.30 48.26 48.88 48.04 47.56 46.32 46.29 46.73 47.91 45.24 41.17 41.20 36.82 34.26 34.01 32.57 32.28 36.34 39.58 38.91 38.69 37.90 39.33 39.28 38.43 35.14 34.34 34.35 34.68 34.33
58.04 57.88 58.06 58.34 58.11 58.11 59.00 59.71 56.95 55.33 54.95 54.14 50.50 43.78 44.78 43.01 45.03 46.28 45.94 47.03 44.69 44.40 44.09 43.22 38.99 36.31 34.54 34.58 30.65 31.86 31.10 31.93 32.94 37.32 37.43 35.75 37.33 37.81 38.79 37.20 34.21 33.28 33.12 33.19 33.16
58.14 58.14 58.20 58.23 58.10 58.80 58.15 52.33 48.50 46.16 47.25 45.80 44.58 43.69 43.55 44.11 45.68 43.93 45.88 44.99 42.92 41.20 37.11 37.47 35.42 33.71 35.52 35.90 35.31 34.04 32.22 32.97 33.74 37.39 36.67 36.29 36.16 39.00 35.84 33.96 32.62 32.43 32.43 32.43 32.60
58.26 58.30 58.31 58.30 58.45 59.45 57.36 49.70 47.50 47.03 44.01 48.49 47.13 45.13 45.03 45.18 41.07 42.49 45.82 41.54 39.05 35.33 36.20 34.33 32.53 37.44 37.08 36.20 34.89 32.70 31.77 31.77 34.26 36.24 36.00 35.07 35.32 37.29 35.85 34.54 34.26 32.73 31.97 32.21 32.12
58.09 57.91 57.94 58.06 58.37 58.26 55.63 51.84 49.26 47.50 42.98 45.75 46.80 46.37 46.27 45.01 42.16 41.43 44.71 40.63 36.66 33.95 34.05 32.64 36.35 37.08 36.64 33.56 33.18 32.04 31.61 30.74 33.16 34.19 34.37 32.73 32.93 33.38 33.31 33.55 33.48 33.24 32.67 32.14 31.52
58.09 57.64 57.40 57.66 56.18 56.45 54.09 56.42 49.77 47.90 38.03 40.20 42.67 45.74 43.51 44.53 40.62 43.14 43.69 41.58 36.44 35.32 33.94 33.76 36.57 36.69 33.44 33.49 33.67 29.73 34.24 34.06 33.15 32.06 29.06 32.61 27.13 31.82 32.17 31.29 31.62 31.26 30.65 30.95 31.09
57.98 57.58 57.41 58.16 53.32 53.49 53.50 50.85 48.01 46.49 27.06 39.86 40.57 44.58 42.84 43.29 40.53 39.47 42.04 40.93 35.85 36.16 36.25 35.90 34.14 33.74 33.64 34.95 35.49 33.79 34.47 33.30 32.66 31.11 29.16 29.26 27.24 30.06 31.40 30.71 30.53 30.28 30.21 30.70 30.74
57.50 57.36 57.14 56.71 55.81 53.06 49.46 48.81 47.61 38.27 29.00 36.55 38.01 37.33 39.39 38.42 37.47 38.62 39.19 40.67 39.36 35.59 33.85 35.45 35.82 36.35 36.55 35.06 35.80 35.15 33.50 32.10 30.05 29.09 23.23 29.65 29.48 28.47 29.98 32.34 30.58 31.37 30.62 30.87 30.23
57.12 56.97 56.29 57.34 53.52 50.65 50.07 48.79 39.03 33.45 38.88 34.22 34.75 36.06 36.91 34.65 35.48 36.46 34.81 33.52 33.21 30.48 30.35 32.90 34.10 34.80 35.79 32.99 33.45 32.09 31.44 25.52 23.93 23.09 23.82 27.75 26.04 30.61 32.99 33.15 33.50 32.45 31.10 30.55 30.64
56.95 56.75 56.16 57.51 54.03 51.11 51.37 44.72 34.14 37.50 36.60 35.52 34.94 34.89 34.66 34.81 33.81 33.90 32.82 31.40 33.78 32.10 29.74 29.65 28.57 34.29 36.06 35.15 32.78 30.77 32.16 26.61 20.26 20.38 23.40 26.46 24.88 31.52 31.76 31.72 32.58 33.60 32.40 31.36 30.07
56.74 56.22 55.74 56.56 53.73 53.39 47.88 38.39 36.83 38.03 40.56 34.96 34.15 30.66 30.71 33.03 33.20 31.43 31.31 31.56 35.78 34.84 33.78 29.74 30.18 33.52 33.96 34.58 36.00 31.31 29.37 32.65 25.11 14.82 20.95 26.87 29.09 32.59 30.83 30.22 30.15 30.23 30.36 30.20 30.06
54.91 54.22 53.81 57.44 54.60 53.39 44.67 39.32 40.45 43.53 39.84 37.20 35.89 35.02 29.60 30.68 31.00 30.23 29.46 33.06 34.40 36.60 37.59 34.32 29.52 32.71 32.87 34.99 34.23 33.29 35.01 28.37 26.72 18.82 17.17 24.19 26.12 29.50 29.40 29.85 28.75 28.54 29.69 30.50 30.51
54.81 49.70 54.58 57.63 54.12 49.44 39.65 39.33 42.77 45.29 42.54 38.79 37.73 35.63 32.35 30.84 31.89 28.92 31.04 32.49 35.35 34.59 37.99 35.50 34.32 30.14 32.56 31.30 31.54 31.73 30.09 29.68 30.51 27.62 21.79 18.31 24.75 30.86 32.30 31.19 29.68 30.02 31.00 31.17 30.70
51.38 45.53 54.79 56.93 45.42 46.61 42.11 42.10 44.42 45.29 45.24 42.83 41.45 41.36 36.92 35.21 31.66 30.49 30.99 35.06 37.43 37.14 34.30 36.58 33.54 27.16 29.52 31.60 31.96 31.51 31.72 31.72 27.86 23.52 23.20 23.71 27.69 31.28 31.48 31.85 32.04 31.36 31.89 31.43 32.28
47.02 46.60 51.43 54.54 41.37 42.05 44.65 43.90 44.81 43.03 44.59 43.99 41.77 41.64 40.99 36.65 34.67 32.85 32.72 37.33 38.81 37.61 35.99 37.04 32.11 24.10 27.77 30.15 29.94 29.48 30.30 30.58 29.46 26.89 22.21 22.71 25.66 31.29 29.50 29.84 30.92 30.95 31.12 31.82 31.62
44.55 38.98 43.86 45.42 44.23 43.98 42.10 42.26 42.07 46.08 44.72 44.29 42.27 41.92 39.02 38.96 39.75 36.33 34.01 35.97 36.91 38.04 41.88 41.31 32.56 30.93 31.13 30.21 30.89 27.76 29.03 29.96 31.24 22.71 26.55 28.84 30.32 28.69 29.91 30.60 29.87 30.53 30.98 30.37 31.10
44.61 40.49 42.51 38.78 40.84 41.14 41.25 43.02 41.65 40.80 44.07 44.77 40.97 42.22 40.77 37.79 37.63 37.60 35.96 35.45 36.78 39.78 37.92 37.97 31.37 29.09 30.42 30.27 30.93 30.20 29.28 28.75 29.34 31.94 28.63 31.51 29.61 31.77 32.02 31.63 31.98 31.84 30.33 29.87 30.27
40.50 38.86 39.93 39.92 42.00 40.85 40.07 38.49 39.16 42.35 40.23 40.05 40.98 42.55 43.08 40.27 40.41 38.21 37.38 35.77 36.12 34.92 35.45 35.85 32.81 29.91 27.63 28.76 28.79 27.19 29.13 29.65 30.79 30.84 30.45 29.51 28.12 33.07 33.52 31.23 30.39 30.55 30.28 29.78 29.93
39.45 39.91 40.39 38.84 37.97 38.89 39.38 39.80 38.40 41.44 40.43 40.99 41.88 40.13 39.87 41.86 40.55 37.91 40.42 40.18 38.52 35.62 34.14 33.24 30.64 30.16 30.40 25.84 27.70 26.83 27.72 28.31 28.29 28.29 31.69 26.64 33.33 28.02 28.81 29.55 29.63 29.70 30.19 29.89 28.84

GFSSW_sfc_wetblb_036.txt.gz
Wetbulb
58.49 58.70 59.20 59.51 59.52 59.88 60.40 60.64 60.84 61.41 61.85 61.33 60.46 60.56 60.70 60.54 59.52 57.34 51.20 56.89 58.81 62.87 60.23 55.54 55.44 54.94 56.02 53.54 51.91 49.85 46.54 44.30 45.29 45.01 46.60 48.96 48.01 49.62 50.07 49.65 49.68 49.21 48.69 47.86 49.41
58.18 58.33 58.74 59.12 59.27 59.71 60.16 60.58 61.04 61.52 61.76 60.97 60.25 60.31 60.06 59.90 55.80 52.69 59.93 62.16 64.00 62.79 54.56 53.01 52.11 52.99 52.68 51.96 52.37 49.25 46.46 44.30 47.76 48.07 47.97 48.54 48.47 49.08 48.50 48.69 47.98 48.25 48.45 48.47 49.28
58.45 58.45 58.62 58.78 59.02 59.52 60.02 60.64 61.21 61.48 61.59 61.25 60.52 60.74 60.06 59.05 53.00 51.04 61.66 62.69 64.28 60.73 55.07 54.69 53.84 51.87 49.58 51.46 50.22 47.77 45.65 45.19 46.83 48.45 49.34 48.58 48.45 49.43 48.49 47.03 48.40 48.15 47.33 46.97 47.76
59.05 58.79 58.68 58.77 58.81 59.17 59.80 60.63 61.22 61.41 61.40 61.40 60.65 60.53 59.39 55.98 47.43 53.58 61.86 63.02 63.12 56.65 55.12 53.36 52.24 49.28 47.99 46.72 49.75 46.33 47.27 47.34 48.48 49.10 48.19 47.91 49.27 48.32 48.63 47.50 46.39 46.36 45.86 45.89 45.94
59.15 58.90 58.75 58.81 58.88 59.01 59.60 60.34 61.18 61.25 61.25 61.19 60.50 59.92 55.84 51.54 51.62 58.69 60.61 62.31 57.88 54.88 53.57 51.77 49.47 49.13 46.23 47.34 48.30 47.48 47.61 47.80 48.90 48.17 48.33 47.54 47.98 47.73 46.67 45.55 45.60 45.00 44.86 44.81 44.83
58.87 58.57 58.50 58.72 58.89 59.02 59.36 59.97 60.80 61.06 61.12 60.44 60.08 58.89 52.32 49.49 57.08 57.62 55.13 54.36 55.03 54.04 52.37 52.09 50.26 50.60 48.07 47.16 46.71 47.23 46.85 47.22 47.51 47.14 47.08 46.27 46.48 46.64 44.34 45.26 44.39 44.33 43.90 43.79 43.25
59.10 58.59 58.45 58.64 59.04 59.10 59.20 59.75 60.46 60.94 59.82 59.38 58.72 56.35 51.15 52.95 58.40 57.58 54.44 53.35 54.35 53.67 51.84 52.12 52.57 50.46 49.49 46.38 47.40 46.32 44.99 46.61 46.84 45.87 45.92 46.86 43.06 44.29 45.72 45.27 43.60 42.42 42.54 41.83 41.77
59.02 58.44 58.29 58.43 58.78 58.85 58.99 59.61 60.44 58.87 58.79 59.09 58.70 53.55 51.86 52.17 59.59 56.10 55.11 53.41 53.51 53.49 52.95 53.01 53.11 50.42 48.68 47.70 45.91 44.33 44.09 43.11 45.28 45.27 44.79 45.65 43.98 44.75 45.12 44.77 43.70 42.35 42.07 41.47 40.66
58.38 57.95 58.12 58.28 58.38 58.31 58.66 59.29 59.48 57.97 58.89 58.96 54.73 51.65 50.27 54.82 53.72 55.14 54.54 52.11 51.66 51.84 51.85 51.28 51.78 48.20 47.44 45.36 43.40 42.95 41.93 41.46 43.33 44.91 44.50 44.42 44.50 45.01 44.83 44.84 43.58 42.54 41.45 40.89 41.07
58.12 57.84 57.92 58.17 58.29 58.13 58.55 59.39 58.42 56.53 56.30 55.35 53.15 50.01 49.69 47.74 50.08 51.21 52.31 52.18 50.48 50.56 49.93 49.64 48.26 45.87 44.96 44.09 40.07 41.60 40.11 40.56 41.98 43.78 43.50 43.47 44.22 43.68 43.84 43.91 43.63 41.96 41.06 40.67 40.08
58.04 57.99 58.10 58.23 58.31 58.43 58.90 57.93 53.49 51.62 51.96 51.18 50.32 49.86 47.41 48.30 50.18 49.37 51.08 49.99 49.64 48.75 45.11 44.85 43.98 41.30 44.61 45.46 44.19 43.11 41.72 42.02 42.25 42.83 42.74 44.01 44.35 44.68 43.45 42.51 41.65 41.28 40.63 40.11 39.18
57.82 58.06 58.34 58.40 58.52 58.63 58.79 55.01 53.13 52.28 48.80 52.25 51.25 48.90 48.45 49.23 44.85 47.14 50.38 47.90 46.66 43.77 43.66 42.56 40.92 46.06 43.60 43.12 41.96 40.85 40.87 41.49 42.04 41.62 41.97 42.90 42.21 45.70 42.22 43.26 43.40 41.39 40.32 39.66 38.96
57.53 57.68 58.06 58.16 58.21 58.24 56.49 55.79 53.51 52.50 49.41 49.73 50.45 50.08 48.61 47.97 46.52 45.72 48.46 46.15 43.84 40.66 41.96 42.69 43.20 43.40 42.13 40.00 39.44 40.20 39.96 41.15 40.29 40.34 41.08 40.19 40.70 42.98 41.46 39.93 40.00 40.78 41.16 40.15 39.86
57.53 57.50 57.57 57.73 55.74 56.66 54.79 58.49 55.43 53.06 44.09 44.91 46.08 49.65 46.52 48.21 44.74 46.35 48.74 46.31 42.24 41.70 41.28 42.12 42.62 40.11 40.26 39.90 41.46 38.67 41.71 40.48 38.98 38.07 36.68 40.17 36.59 40.84 41.70 39.14 37.55 38.00 38.38 38.88 38.47
57.44 57.46 57.54 57.89 56.64 53.86 55.38 58.37 56.91 52.59 32.25 45.16 44.12 48.26 46.20 47.26 44.85 42.67 46.52 45.57 41.52 40.20 41.62 41.74 38.75 39.16 39.45 41.11 41.32 41.10 40.40 39.73 39.08 38.33 36.85 37.01 35.54 41.24 37.67 37.47 36.99 37.52 38.19 38.91 38.81
57.24 57.24 57.27 56.58 56.57 56.17 52.58 52.58 52.43 41.48 32.23 40.20 42.02 41.16 42.87 42.26 40.92 42.41 43.41 45.94 44.80 41.06 40.59 42.04 41.68 41.92 42.76 39.77 41.64 40.24 39.39 38.27 37.79 37.19 31.77 37.29 36.52 39.37 38.75 39.94 40.10 38.16 37.72 37.84 37.14
57.09 56.99 56.46 57.49 52.70 54.05 51.87 50.37 41.06 35.17 43.58 37.79 38.80 40.44 42.11 38.50 38.10 40.06 39.49 39.75 40.62 37.40 38.24 38.99 39.77 40.77 40.87 38.32 38.72 40.18 39.04 33.50 30.87 30.29 30.63 33.32 33.84 40.04 42.68 39.22 40.75 38.17 37.37 37.64 37.11
56.96 56.89 56.35 57.36 56.84 51.78 51.60 45.55 34.49 41.20 41.73 39.60 38.71 39.56 39.34 38.88 38.56 37.47 36.77 38.13 41.28 40.05 37.92 36.65 34.89 38.83 40.83 42.32 39.34 37.71 40.16 35.72 28.55 28.30 32.44 30.71 30.63 37.92 37.65 37.74 37.80 40.79 39.03 37.68 36.49
56.75 56.38 56.06 56.91 54.18 52.94 47.65 38.41 37.67 41.78 45.05 38.56 37.65 36.81 37.88 37.75 38.96 37.32 38.22 39.22 41.71 40.65 38.53 36.01 36.09 38.75 38.15 39.43 42.39 36.55 34.07 40.09 30.98 24.73 30.47 35.26 36.31 40.28 35.51 35.48 35.94 37.08 36.92 36.01 36.08
54.91 53.97 53.76 57.75 55.24 51.64 44.40 39.22 41.53 46.71 43.66 42.37 38.70 40.47 36.26 36.23 36.51 36.96 36.62 40.68 39.37 41.47 44.02 40.73 35.51 36.54 36.93 40.15 39.35 38.76 40.35 32.47 33.93 28.51 27.57 33.10 34.17 38.16 35.05 36.04 35.07 34.89 35.68 36.65 36.88
53.50 49.52 54.91 57.67 54.84 48.36 39.05 40.07 43.52 47.32 45.69 42.05 41.78 40.43 39.23 36.15 38.53 35.73 38.70 39.95 42.41 39.40 42.55 40.54 38.35 34.20 36.47 35.67 36.72 34.76 34.79 35.46 36.50 34.55 31.50 30.80 34.86 41.05 41.29 39.75 36.45 37.13 37.26 37.52 36.82
51.18 45.09 55.65 56.36 44.90 45.61 41.34 42.72 45.43 45.49 46.02 45.52 44.57 44.34 40.29 37.97 36.79 36.60 37.31 42.36 42.09 40.74 37.06 41.72 37.99 33.03 33.83 36.65 36.73 39.82 38.12 37.21 33.66 29.33 31.16 30.64 35.35 36.73 39.27 40.69 39.79 39.02 37.99 38.62 38.09
47.31 47.76 54.07 54.04 40.91 40.11 44.23 43.36 44.85 44.04 45.07 45.16 42.85 43.91 43.72 38.76 36.75 38.59 39.05 41.88 41.15 40.78 39.59 40.44 36.84 32.90 32.59 33.75 34.47 34.03 35.47 37.19 37.23 35.26 32.94 31.93 34.68 35.91 35.88 36.45 37.80 38.98 38.33 37.88 37.54
45.37 40.46 45.03 49.53 47.70 43.57 40.51 41.78 41.76 46.02 44.69 45.70 45.42 44.42 40.18 39.83 40.75 40.99 39.61 39.44 40.68 41.48 42.70 42.84 37.63 35.74 33.68 36.62 37.80 32.68 34.41 35.19 36.14 33.13 34.20 33.86 37.33 34.81 36.06 36.33 37.26 36.85 38.25 38.12 37.10
45.97 41.01 43.38 38.71 43.73 44.34 44.50 42.67 40.93 40.81 44.23 45.63 43.05 43.42 42.32 38.63 39.81 38.70 39.91 36.98 38.36 40.21 40.00 40.37 34.80 37.18 38.08 37.83 36.28 35.95 35.25 34.29 33.91 36.27 34.77 38.16 36.46 38.35 38.40 38.25 39.85 40.56 38.23 36.86 36.29
42.16 39.53 41.33 39.82 42.97 43.16 42.22 41.77 40.81 42.34 42.28 41.25 41.09 43.21 43.52 40.45 41.30 39.51 41.43 39.96 38.00 37.19 37.35 37.55 35.48 36.88 33.38 37.95 34.83 32.95 35.56 34.98 35.30 36.66 37.37 38.10 36.29 42.39 41.65 39.21 37.76 37.08 36.03 35.88 36.68
40.54 41.10 42.84 39.68 38.49 39.27 40.54 41.01 39.84 42.20 41.00 42.47 43.04 42.84 41.57 43.21 45.20 44.56 41.70 43.13 41.65 37.40 35.79 35.94 35.93 31.99 31.51 35.51 30.46 27.54 32.66 34.36 35.19 37.62 37.21 33.74 37.68 36.86 35.54 36.40 38.57 38.24 37.10 36.98 37.52

GFSSW_sfc_wetblb_042.txt.gz
Wetbulb
58.47 58.66 59.18 59.50 59.57 60.06 60.60 61.02 61.46 61.85 62.08 62.22 62.21 61.63 61.50 61.19 60.47 59.49 56.17 58.12 60.26 62.82 60.31 56.07 55.64 55.74 55.62 53.79 53.23 50.56 42.60 40.89 41.75 42.85 44.85 47.81 45.61 47.14 47.47 46.88 47.16 48.10 45.84 46.17 48.31
58.21 58.28 58.71 59.12 59.31 59.70 60.21 60.80 61.18 61.69 61.98 62.09 62.07 61.71 61.30 60.62 57.93 56.52 59.28 62.75 63.29 63.69 56.39 53.45 52.16 53.35 50.42 51.78 51.26 46.49 42.96 43.80 46.46 46.13 45.38 47.38 46.42 47.44 45.01 46.27 44.09 45.19 47.19 48.27 48.65
58.46 58.48 58.66 59.05 59.20 59.54 60.07 60.59 61.18 61.62 61.78 62.11 62.07 61.60 60.81 58.75 55.31 54.33 61.29 62.87 64.04 60.89 56.25 55.23 53.87 52.02 48.95 49.62 48.49 46.96 42.56 44.91 46.51 48.78 48.91 47.41 45.27 46.78 44.31 44.14 45.60 46.01 46.01 47.28 47.63
58.94 58.95 58.85 58.86 59.12 59.34 59.78 60.31 60.99 61.44 61.60 61.90 61.68 60.95 59.82 58.11 47.55 57.60 62.19 63.14 63.57 57.24 55.77 54.74 52.18 48.43 46.98 46.08 49.52 43.80 46.14 46.60 48.93 48.77 47.88 46.30 47.61 45.20 45.70 43.74 47.42 46.61 47.39 46.98 46.16
59.33 59.16 58.92 58.71 58.88 59.24 59.55 59.94 60.71 61.22 61.51 60.98 60.84 60.25 58.16 53.60 53.86 59.02 60.92 61.59 58.73 56.04 54.10 52.98 49.35 48.65 45.27 46.89 47.84 45.24 46.49 47.69 48.67 47.62 46.72 48.34 45.63 45.62 44.62 45.59 46.36 46.66 47.37 45.30 44.67
59.16 58.74 58.63 58.67 58.67 59.11 59.36 59.57 60.19 60.79 60.96 60.33 60.28 58.98 56.17 49.60 58.29 58.79 56.73 57.16 56.56 54.56 53.21 52.57 49.87 50.16 47.47 46.61 45.29 47.12 47.46 47.00 48.05 47.64 47.05 45.34 45.06 45.05 45.30 45.55 44.58 45.67 44.14 43.31 43.74
58.90 58.75 58.44 58.51 58.67 58.96 59.13 59.26 59.73 60.49 59.92 59.98 60.51 57.56 54.14 53.27 59.27 56.75 55.64 54.76 55.13 54.71 53.13 53.27 52.52 49.55 49.12 46.35 48.32 46.92 42.88 45.38 45.81 46.22 44.88 45.56 42.40 43.08 46.01 45.56 44.12 43.81 42.26 42.68 42.91
58.31 57.95 58.49 58.42 58.63 58.80 58.99 59.16 59.51 59.61 59.26 59.94 60.32 56.79 50.84 56.09 58.95 56.71 55.86 54.04 55.03 55.00 54.17 53.70 53.29 51.41 48.85 48.26 46.43 43.05 42.07 38.58 45.10 45.77 44.20 43.00 38.83 45.22 44.95 43.74 42.82 42.79 41.36 41.76 41.96
57.54 57.68 58.22 58.24 58.20 58.33 58.66 58.74 58.76 59.65 58.96 58.99 56.61 54.63 50.12 56.79 54.18 57.04 55.89 52.89 53.05 53.38 52.98 53.35 52.86 48.39 46.90 41.99 40.16 41.57 36.55 39.56 41.38 45.56 43.57 41.79 40.20 43.21 44.72 44.05 42.40 41.88 41.99 42.12 40.99
57.48 57.32 57.93 58.00 58.03 58.17 58.37 58.72 59.33 59.35 57.78 57.13 55.63 49.93 51.25 49.66 52.88 55.40 54.70 54.17 51.69 50.88 50.00 49.33 46.99 42.97 42.55 40.21 34.67 38.39 37.54 40.88 39.58 42.56 42.86 40.33 39.83 42.73 43.69 43.64 42.72 42.25 42.03 41.22 41.00
57.47 57.34 57.90 57.90 57.99 58.50 57.53 56.64 53.99 51.79 53.66 50.44 51.08 51.38 50.36 50.17 53.21 51.96 53.41 51.51 51.14 48.43 43.10 45.93 40.68 38.44 42.06 43.49 44.00 42.67 40.32 39.43 41.38 42.70 41.32 40.88 41.31 44.02 42.99 42.38 41.91 42.32 41.72 40.98 40.72
57.54 57.37 57.84 58.01 58.35 58.52 57.23 52.92 52.54 51.99 47.17 53.56 53.04 52.94 51.37 50.91 46.49 49.87 52.15 47.21 46.38 42.24 44.95 40.96 38.09 44.72 46.57 45.77 43.40 42.10 39.69 38.81 42.59 42.50 39.87 40.30 40.40 43.71 43.40 42.64 43.45 43.67 41.92 41.02 38.71
57.54 57.11 57.43 57.83 58.19 57.08 54.65 54.09 55.75 54.67 47.60 48.52 53.19 51.97 50.25 49.20 47.27 46.89 48.94 47.42 44.21 42.50 43.01 40.62 43.47 46.24 44.76 42.37 41.30 40.73 38.85 38.52 39.39 40.34 39.19 37.05 36.02 40.45 44.26 44.71 43.99 44.11 43.79 42.32 38.82
57.69 56.98 56.82 57.28 55.22 54.99 52.55 56.70 58.41 57.65 41.46 42.58 48.22 51.27 49.05 49.40 45.35 50.23 50.07 47.57 44.37 41.83 43.14 42.32 46.03 42.82 42.29 41.40 41.84 37.69 42.70 42.11 40.54 36.49 31.73 38.02 29.52 38.40 42.43 43.37 42.65 43.21 41.58 40.22 39.26
57.50 56.90 56.73 57.41 54.13 51.74 54.35 57.63 57.97 54.95 27.41 45.48 46.50 52.38 49.53 47.17 45.48 44.16 47.88 45.37 41.98 41.42 43.10 40.25 39.91 39.76 39.71 41.27 43.19 39.59 42.01 39.75 38.60 35.93 34.45 34.81 32.64 36.66 42.17 41.63 42.23 41.50 40.13 39.52 39.05
57.18 56.78 56.57 55.75 55.24 56.03 57.36 57.09 55.57 39.82 28.83 41.62 43.66 43.14 42.93 45.47 42.95 43.21 43.20 45.37 45.49 42.63 41.65 40.83 42.29 41.68 41.72 41.08 41.65 42.47 39.93 38.24 36.67 35.42 28.53 35.44 35.04 34.29 39.92 41.81 42.60 41.09 40.59 39.69 38.54
56.57 56.57 55.59 56.52 51.49 56.65 57.56 53.63 37.15 30.70 42.21 38.95 39.78 42.77 42.55 41.45 40.39 40.97 39.06 37.74 37.82 34.75 34.80 38.72 39.36 41.37 42.38 38.12 39.63 39.88 36.75 29.48 27.07 25.67 26.69 34.27 33.47 37.45 41.38 41.28 42.39 41.47 40.57 39.78 38.75
56.11 56.40 55.54 56.35 56.95 56.00 54.68 43.74 30.06 36.27 37.52 44.58 43.25 42.28 39.69 41.39 40.22 39.38 37.64 35.76 39.69 39.57 37.47 34.13 32.83 39.61 41.48 41.47 38.00 36.36 37.59 30.73 24.93 25.81 27.64 29.00 27.76 35.34 39.05 39.32 40.81 43.00 41.72 40.44 38.29
55.60 54.96 55.18 56.15 57.38 55.31 49.15 35.18 33.09 37.32 41.63 40.75 41.60 38.52 38.61 39.94 39.18 37.59 37.09 37.75 40.48 40.72 36.97 36.93 36.66 41.13 41.09 42.41 43.30 36.42 33.52 40.87 31.73 24.02 24.22 31.14 33.79 39.08 36.84 35.97 36.50 38.36 39.02 38.57 37.70
52.67 52.40 52.90 57.27 57.52 52.33 44.65 36.47 37.76 43.29 44.57 42.32 37.09 40.88 36.87 37.88 36.66 36.45 36.39 41.00 41.17 42.71 44.19 41.81 35.79 38.97 36.80 40.02 39.92 37.84 40.25 31.34 31.06 20.60 21.62 29.41 32.26 34.21 33.44 35.23 35.39 37.12 37.52 38.18 37.90
51.09 45.91 53.20 57.66 55.54 47.85 38.87 37.67 40.91 45.60 45.82 41.64 40.39 39.64 40.25 39.18 37.64 35.75 38.64 41.58 43.81 42.65 43.92 42.19 38.53 32.71 36.10 34.20 35.28 34.04 33.09 35.04 35.77 31.70 25.73 24.48 30.89 38.73 39.47 38.85 35.80 37.83 38.41 38.13 37.39
48.30 41.14 54.07 56.53 44.68 45.00 40.77 41.74 43.88 43.56 46.96 45.58 45.41 42.65 42.29 41.56 38.20 37.35 37.31 41.75 45.94 44.76 39.50 42.42 39.33 30.57 31.96 37.52 38.41 38.55 36.28 36.19 29.62 28.07 30.52 28.26 33.17 38.61 38.58 40.05 38.83 38.35 38.78 38.24 37.84
43.65 44.51 53.25 54.04 40.34 41.00 42.98 42.42 43.87 43.19 43.88 44.10 43.55 45.00 45.67 42.59 38.56 39.93 40.74 44.56 45.69 43.30 40.32 41.83 36.21 29.57 30.67 33.25 34.77 33.41 35.98 38.39 37.87 32.88 31.92 27.20 31.77 36.40 36.36 37.51 38.62 37.69 37.82 38.11 37.59
43.07 38.73 44.37 47.99 47.45 43.12 41.20 40.26 40.42 44.98 43.77 45.67 44.85 45.36 43.01 41.57 44.07 39.61 40.21 42.51 43.98 44.02 44.20 44.32 38.03 34.46 32.55 34.51 36.42 30.70 33.22 36.15 36.19 30.42 30.38 33.23 35.38 32.78 34.99 35.40 36.84 37.23 38.09 37.83 37.53
42.50 39.29 43.32 38.41 40.85 42.82 43.69 42.17 39.58 39.76 43.64 44.94 42.62 43.00 42.26 39.04 40.32 40.54 41.24 39.19 40.30 42.32 42.39 42.07 35.18 37.08 38.64 40.02 38.12 33.72 32.65 34.53 33.53 35.55 32.20 35.21 35.79 40.02 38.83 36.75 38.39 38.61 38.27 37.77 37.07
38.94 38.85 41.30 40.24 42.18 40.57 41.04 38.90 39.08 40.71 41.96 40.18 40.00 42.32 42.76 40.37 40.70 39.29 41.73 40.70 38.07 37.19 37.50 38.79 33.81 36.32 34.79 36.90 37.70 35.94 37.68 35.09 34.69 35.39 36.39 36.88 36.14 40.86 42.65 40.40 37.20 38.62 38.14 37.46 37.04
44.54 42.92 40.86 38.60 38.26 37.66 36.33 38.65 39.12 41.97 42.77 44.33 43.25 41.97 41.14 43.02 45.91 46.55 45.80 44.96 42.82 37.92 34.89 35.51 34.21 32.76 31.79 34.86 35.13 31.60 35.74 37.16 37.48 37.01 36.79 32.40 38.21 40.82 39.84 37.83 37.23 37.33 37.99 37.39 37.44

GFSSW_sfc_wetblb_045.txt.gz
Wetbulb
58.96 59.04 59.49 59.71 59.81 60.21 60.67 61.14 61.39 61.82 62.10 62.16 62.29 62.32 61.65 61.32 60.68 58.35 53.28 56.81 58.55 62.38 60.06 53.03 51.69 50.84 50.83 48.81 48.03 44.66 37.73 35.52 38.12 39.52 41.37 44.13 42.91 45.10 45.61 45.08 44.59 45.03 43.20 44.57 47.87
58.64 58.78 59.10 59.41 59.59 59.85 60.32 60.72 61.03 61.51 61.95 62.08 62.14 62.19 61.53 60.66 56.35 53.98 59.47 62.45 63.27 62.41 53.40 49.74 47.78 48.33 45.81 46.77 46.83 42.00 37.05 38.72 41.81 41.82 42.02 44.52 43.64 45.09 43.35 42.68 41.62 41.98 44.38 46.02 46.41
58.65 58.79 59.00 59.12 59.38 59.66 60.02 60.46 60.88 61.28 61.61 62.02 61.80 61.49 60.83 58.75 52.34 51.90 61.43 62.82 63.25 59.88 54.38 51.84 50.21 47.87 43.58 44.51 43.30 42.08 38.22 41.08 43.61 45.76 45.58 44.93 43.62 44.43 43.51 40.25 42.90 43.32 43.89 45.07 44.71
58.94 58.86 58.88 58.89 59.04 59.42 59.70 60.35 60.67 60.98 61.34 61.56 60.96 60.49 59.51 55.33 42.63 55.08 61.68 62.45 62.77 55.43 53.32 50.69 48.12 43.50 41.69 41.73 45.66 39.06 42.75 43.95 46.58 46.55 45.57 43.35 44.84 43.05 42.81 42.22 44.15 44.38 44.93 43.99 43.62
59.04 58.79 58.73 58.62 58.69 59.11 59.55 59.79 60.45 60.72 61.24 60.74 60.45 60.00 54.75 49.01 50.35 56.90 60.47 60.16 56.15 52.93 50.94 49.77 45.59 44.08 41.02 43.06 44.19 41.39 42.90 45.15 46.19 45.23 44.01 46.02 43.40 42.88 41.87 42.50 44.49 45.12 44.75 42.96 42.74
58.64 58.56 58.32 58.38 58.50 58.89 59.30 59.45 59.79 60.39 60.86 60.27 60.54 59.76 51.91 44.62 56.04 56.28 55.29 54.81 54.25 51.26 49.71 49.44 46.63 46.54 43.48 43.00 42.03 43.72 44.19 44.34 45.57 45.32 44.52 43.60 42.31 42.73 41.68 42.17 42.75 43.51 41.53 41.22 42.45
58.08 58.14 58.32 58.28 58.58 58.83 59.11 59.22 59.37 59.92 60.28 59.88 60.62 56.97 49.88 49.49 55.06 53.15 53.69 51.80 52.15 51.44 49.83 50.39 49.75 46.28 45.17 42.79 45.30 44.06 39.83 42.14 43.20 44.45 42.93 43.78 40.32 41.73 42.71 42.37 41.76 40.95 39.86 40.59 41.56
57.89 57.43 57.46 58.28 58.44 58.64 58.96 59.21 59.21 59.50 59.95 59.72 59.93 53.34 46.34 53.85 54.13 54.05 52.52 50.90 51.65 51.74 51.22 50.62 50.13 47.85 45.37 45.10 43.38 39.68 38.31 35.43 42.01 43.40 42.75 41.55 36.36 42.40 42.28 41.27 40.19 39.61 38.37 39.51 40.62
57.34 57.13 57.29 58.02 57.99 58.05 58.51 58.83 58.50 59.29 60.32 59.84 52.97 49.96 45.99 55.13 52.57 54.46 51.95 49.96 50.31 50.39 49.61 51.99 49.26 44.61 43.20 38.52 36.10 36.37 32.70 35.35 39.72 42.64 41.58 39.46 37.46 40.96 41.99 41.47 39.51 38.55 38.27 39.00 38.73
57.43 57.02 57.11 57.78 57.76 57.84 58.22 58.85 58.31 58.36 58.18 56.76 54.54 44.73 47.98 47.32 50.83 52.60 50.93 51.19 48.59 47.75 46.70 45.90 43.41 39.18 38.52 35.73 31.19 34.06 33.58 37.23 36.68 41.01 39.75 37.42 37.72 40.42 41.78 41.15 39.84 38.58 38.32 38.45 38.28
57.64 57.31 57.28 57.43 57.73 58.14 56.97 54.12 51.20 48.55 50.65 44.67 46.44 46.60 47.09 48.35 51.08 49.64 51.08 49.46 48.41 44.76 39.08 41.64 37.17 35.27 38.12 39.07 39.47 37.64 35.91 35.50 38.27 41.16 39.11 37.90 38.28 40.49 41.24 39.91 38.82 38.33 38.56 38.97 38.73
57.90 57.60 57.53 57.56 57.92 58.18 54.82 50.53 50.01 49.05 44.15 51.23 50.62 50.21 48.89 48.94 44.53 48.11 50.15 44.88 43.81 39.45 41.45 38.60 35.76 41.10 42.71 41.60 40.29 38.85 36.30 35.94 39.03 40.28 38.81 37.85 37.76 40.72 40.41 40.95 41.63 41.27 40.42 39.92 36.44
57.89 57.37 57.23 57.55 57.71 56.73 52.83 51.95 53.95 51.20 43.64 47.11 50.56 49.85 47.10 47.82 45.02 45.31 47.46 44.76 41.32 39.29 39.42 36.67 40.92 44.17 42.43 40.42 39.39 37.88 36.40 35.41 37.40 37.73 37.28 35.06 33.93 37.40 41.12 41.42 41.71 42.85 42.70 41.03 37.53
58.08 57.50 57.05 57.24 54.41 53.98 51.24 55.08 55.61 54.73 35.10 39.01 44.41 49.09 46.66 47.30 43.13 48.72 48.64 45.47 41.85 39.50 39.88 38.95 43.57 41.88 40.28 39.24 40.15 35.20 40.23 39.98 38.49 34.64 30.50 35.18 29.43 35.63 38.74 39.67 39.54 42.22 39.69 39.84 37.11
57.82 57.51 57.00 57.09 53.59 51.35 53.16 55.79 55.18 52.39 22.04 39.48 44.96 50.16 46.68 45.82 44.09 42.94 45.87 43.75 39.79 40.19 40.89 38.06 39.39 38.90 39.44 39.92 41.29 37.83 39.76 38.02 36.66 33.49 31.64 32.09 29.50 33.90 39.28 39.65 42.51 41.99 41.24 39.65 37.76
56.35 57.24 57.05 55.86 55.06 55.02 56.08 56.47 54.57 38.91 24.20 38.38 42.86 41.73 41.60 43.21 40.98 41.98 42.82 44.27 44.23 40.71 39.29 39.01 40.57 40.58 40.63 39.06 40.55 40.61 38.41 37.27 35.22 33.26 26.31 32.88 32.25 31.98 38.19 40.54 43.34 41.23 39.02 37.47 36.72
54.80 56.25 55.79 56.43 50.92 55.96 57.59 48.36 32.62 28.45 38.80 36.45 37.82 40.77 40.65 39.74 38.27 39.17 37.67 37.14 37.14 33.79 32.99 36.63 37.04 38.80 40.76 37.52 39.49 38.89 34.93 27.20 26.00 24.62 26.99 33.27 31.01 36.92 39.41 41.46 42.03 41.13 37.96 36.85 36.86
54.10 55.76 55.25 56.25 56.61 56.01 54.44 40.35 29.14 34.62 34.68 41.21 40.69 39.47 37.22 39.72 37.99 37.84 36.17 35.02 38.05 37.05 34.34 33.62 30.97 37.74 39.84 39.11 36.81 34.80 35.35 28.91 23.20 23.71 26.08 29.22 27.15 34.42 40.97 42.14 38.86 41.57 40.54 37.55 36.15
53.68 54.62 54.00 55.52 56.87 55.56 48.55 31.29 33.68 36.28 39.55 38.46 39.25 35.74 35.66 37.93 36.98 35.98 34.45 36.74 39.05 39.41 36.34 33.32 33.02 38.74 39.06 41.87 41.85 34.31 32.92 39.33 31.24 19.66 22.42 29.42 32.73 37.40 36.93 36.95 36.51 37.56 38.16 36.78 35.90
48.73 50.88 49.89 56.23 56.96 52.87 44.73 36.28 35.86 41.93 41.52 41.39 36.36 38.07 33.85 35.81 34.60 34.09 33.64 37.52 38.29 41.66 41.75 39.82 33.61 36.13 35.97 40.89 38.93 37.15 38.57 30.93 29.63 19.97 19.55 26.94 29.14 33.37 34.14 36.55 35.39 35.87 36.20 35.46 35.22
47.59 44.48 49.51 56.52 55.48 47.81 38.97 37.06 39.79 43.41 43.62 41.22 37.35 37.09 37.45 35.97 35.77 33.32 34.88 37.47 40.87 39.73 42.79 40.68 38.41 31.20 34.79 33.53 34.66 34.63 32.67 33.95 34.69 29.63 24.71 23.71 30.19 36.99 38.90 39.02 35.83 36.48 37.07 36.84 35.35
43.60 38.15 50.58 55.98 44.48 44.97 40.20 42.56 43.16 42.63 44.95 42.91 42.54 40.63 38.18 38.81 36.53 34.43 34.65 38.83 42.44 41.81 37.38 41.57 38.19 27.51 31.67 35.19 36.94 35.33 35.54 34.25 30.68 27.25 27.59 26.99 33.53 37.34 36.43 36.88 37.79 36.80 37.82 37.95 37.38
40.58 40.01 48.59 51.46 38.03 39.63 43.33 42.95 43.47 42.57 42.58 42.52 41.95 42.51 42.77 40.20 36.89 37.97 37.23 41.94 43.03 41.71 38.94 41.51 36.23 30.02 29.75 32.48 33.38 33.37 35.44 38.60 35.66 28.74 30.21 25.58 32.57 35.75 35.27 36.50 36.68 35.57 35.71 36.55 36.07
41.38 35.51 40.28 43.71 44.06 40.67 39.85 40.86 40.34 44.96 43.43 43.96 42.74 43.76 42.09 40.84 42.62 39.45 38.06 41.05 42.40 42.89 43.72 44.18 37.51 35.88 33.02 34.53 35.00 31.25 33.58 35.41 36.30 30.40 30.57 32.97 36.11 33.99 34.30 36.60 35.90 35.47 35.96 35.91 36.42
40.92 34.91 38.02 36.17 37.37 38.88 39.79 41.30 39.89 38.90 43.48 44.16 41.54 41.78 40.86 38.09 39.55 38.89 41.18 39.30 40.60 42.23 42.37 42.35 34.75 35.63 38.34 37.33 35.85 33.29 33.01 34.61 33.55 35.41 32.31 36.05 35.80 39.92 40.52 37.30 37.35 36.73 35.64 35.11 35.19
37.12 36.12 36.84 36.29 39.72 39.55 38.17 36.02 36.06 38.14 41.70 40.41 39.84 41.89 42.12 39.89 40.23 38.48 40.69 40.36 38.10 37.49 40.32 40.26 34.39 36.39 34.86 37.30 36.14 34.27 34.27 34.70 35.66 36.49 36.55 37.34 36.47 40.35 41.62 39.34 36.39 37.25 36.67 35.79 35.69
42.73 39.42 39.83 36.32 34.57 34.28 36.32 37.33 39.16 41.42 41.84 43.20 42.69 41.47 40.47 42.52 45.78 45.76 45.28 44.45 41.53 37.80 36.75 36.72 35.63 33.03 32.02 35.06 33.96 31.49 35.67 36.86 36.16 36.81 36.52 32.87 38.28 39.41 40.49 40.53 36.61 36.13 37.16 37.14 37.38

GFSSW_sfc_wetblb_048.txt.gz
Wetbulb
59.00 59.12 59.51 59.71 59.74 60.11 60.52 60.86 61.04 61.39 61.74 62.01 62.19 62.25 61.94 61.29 60.29 56.86 50.97 55.40 56.71 62.18 60.02 51.57 50.18 49.26 49.18 47.37 46.52 41.81 36.21 34.21 36.12 37.53 39.57 42.13 41.71 43.32 43.21 43.65 42.46 43.17 42.13 43.12 47.51
58.53 58.78 59.07 59.31 59.53 59.78 60.14 60.37 60.59 60.99 61.51 61.85 61.80 61.64 61.34 60.65 55.10 52.12 59.42 62.01 62.01 61.35 51.17 48.24 46.14 46.70 44.89 45.15 44.94 40.67 35.21 37.70 40.59 39.95 40.25 42.52 42.34 43.96 42.29 41.20 39.82 40.23 42.63 44.26 45.84
58.52 58.71 58.87 58.95 59.20 59.53 59.78 60.08 60.42 60.64 61.12 61.77 61.27 60.87 60.30 58.37 50.35 49.78 61.97 61.62 62.63 59.37 53.00 50.33 48.61 46.11 42.64 42.75 42.30 39.76 37.23 39.78 41.89 43.90 43.59 43.01 41.34 42.86 41.64 39.22 41.96 41.82 43.00 43.53 43.44
58.59 58.46 58.51 58.55 58.65 59.13 59.53 59.74 60.32 60.59 60.77 61.39 60.70 60.48 59.91 53.86 41.25 53.19 61.42 61.24 61.91 54.45 51.50 48.97 46.52 41.85 40.50 40.30 43.79 37.17 40.85 42.25 44.75 44.65 43.89 42.69 43.25 41.95 41.61 42.04 43.79 43.88 43.54 42.83 42.72
58.92 58.64 58.23 58.18 58.30 58.84 59.30 59.49 59.75 60.19 60.62 61.14 60.55 60.25 54.01 46.95 48.77 55.28 60.15 59.08 54.32 51.32 49.10 47.53 43.68 42.37 40.13 41.37 42.42 39.54 41.04 43.30 44.53 44.06 42.65 44.33 41.86 42.01 41.27 40.36 42.48 43.63 44.10 42.38 41.88
57.59 58.37 58.14 58.09 58.10 58.53 58.98 59.25 59.37 59.80 60.06 60.75 60.60 59.71 50.22 42.32 54.70 54.62 54.20 53.10 52.22 49.60 47.83 47.10 44.96 44.88 42.87 41.61 40.46 42.68 42.45 42.69 43.94 43.49 43.37 42.86 41.08 41.82 40.42 40.92 41.46 42.46 41.31 40.91 41.59
57.98 57.52 58.01 58.18 58.11 58.36 58.67 58.93 59.11 59.42 59.58 60.31 60.39 56.41 48.05 47.40 54.12 52.19 52.25 50.27 50.69 49.92 47.76 48.34 47.96 44.97 43.84 41.98 43.86 42.44 38.37 40.03 41.90 43.14 42.15 42.69 39.26 40.75 41.29 40.79 40.57 40.00 39.01 39.86 41.06
57.88 57.48 57.23 57.70 58.11 58.10 58.29 58.63 58.99 59.18 59.47 60.34 60.74 52.17 44.80 52.50 52.87 51.44 50.90 49.37 50.24 50.51 49.68 49.03 48.71 46.71 44.25 43.84 42.32 38.16 37.12 34.34 39.94 41.92 41.40 40.53 35.02 40.81 40.55 39.96 39.13 38.62 37.28 38.45 39.68
57.57 57.13 57.10 57.25 57.76 57.70 58.01 58.42 58.39 58.85 59.68 60.46 51.96 48.01 44.10 54.73 51.90 53.31 49.97 48.45 48.80 48.92 48.62 51.26 47.96 42.85 42.17 38.01 34.88 35.26 32.09 33.22 38.14 41.41 40.16 38.54 36.35 40.16 39.27 39.52 38.44 37.19 37.02 37.90 37.96
57.65 57.17 57.03 57.10 57.56 57.48 57.80 58.58 58.21 57.78 57.07 56.97 53.63 43.74 46.22 46.24 50.25 51.21 49.67 49.84 47.12 46.05 45.12 44.77 41.43 38.28 36.41 35.01 30.62 32.29 31.84 34.41 34.70 39.06 37.84 35.85 36.95 39.05 39.73 39.39 39.41 37.33 36.89 37.05 37.65
58.02 57.54 57.36 57.12 57.49 57.77 56.00 52.50 47.76 45.38 48.33 42.27 44.31 42.67 45.90 47.73 50.26 48.68 50.09 48.27 46.89 43.44 38.04 39.83 36.41 34.44 37.42 37.53 37.58 36.07 34.15 34.16 36.38 40.47 38.29 36.84 37.36 39.95 39.78 38.34 37.67 37.31 37.36 37.93 38.57
58.44 57.86 57.61 57.36 57.78 57.79 53.61 48.80 47.47 48.60 43.24 49.43 49.29 48.57 47.89 48.28 44.09 47.05 49.20 44.48 42.60 38.60 39.89 37.24 34.50 40.08 40.58 39.59 37.99 36.08 34.09 33.70 37.30 39.62 37.90 36.96 36.45 39.18 38.83 39.34 40.97 40.65 39.55 39.43 36.68
58.43 57.88 57.52 57.43 57.71 56.03 51.53 51.18 53.12 50.92 42.46 44.23 48.76 48.19 47.19 47.12 44.73 44.87 46.92 43.74 40.40 38.25 38.37 35.92 39.91 42.26 40.94 38.36 37.00 36.29 34.32 33.70 36.27 36.30 35.89 33.46 32.39 36.45 40.27 39.64 40.33 41.96 42.98 41.44 39.06
57.46 57.88 57.21 57.22 54.18 53.26 50.78 54.78 54.67 52.66 31.98 35.83 43.68 47.29 45.68 46.77 42.90 48.03 47.73 44.49 40.07 38.54 38.26 37.48 41.69 40.38 38.46 37.71 38.81 34.00 38.94 38.36 36.89 33.67 29.98 34.37 28.23 33.78 37.17 38.64 39.11 41.81 40.81 41.18 38.96
55.47 57.34 57.21 57.06 53.51 50.33 52.80 55.09 54.98 49.82 22.41 38.52 42.82 48.69 45.34 44.53 42.24 42.61 45.49 42.78 38.83 39.23 39.41 37.26 38.19 38.23 37.47 38.51 40.28 37.18 39.47 37.01 35.15 32.08 29.62 30.61 28.42 31.82 36.00 36.22 39.24 43.20 41.10 39.97 38.31
54.47 55.66 57.05 56.08 55.37 55.17 56.64 56.75 51.89 37.69 23.67 35.71 42.60 40.88 40.91 41.79 39.89 41.03 42.36 43.19 42.80 39.72 38.37 38.01 39.68 40.64 40.56 39.60 40.87 39.87 37.36 35.67 33.53 31.79 25.79 32.41 30.71 30.05 35.12 40.03 40.45 43.27 43.08 39.20 37.66
53.84 54.06 55.56 56.52 51.28 56.71 56.02 49.38 32.53 28.76 39.39 35.76 36.98 39.88 40.06 38.53 37.52 38.52 37.38 37.15 36.55 33.43 33.93 35.76 36.95 38.48 39.97 37.54 38.68 38.15 34.61 26.42 25.28 23.99 26.13 30.94 28.84 35.83 38.27 40.66 42.38 44.16 41.86 37.24 37.39
53.55 53.65 54.51 56.34 56.45 57.04 52.11 40.82 28.13 33.88 36.42 40.58 40.18 38.13 36.59 38.75 37.36 36.94 35.52 35.29 38.48 35.96 32.57 32.84 29.85 37.25 39.47 39.26 36.38 35.29 34.23 27.67 21.56 22.29 25.08 28.92 27.12 33.80 39.29 42.32 39.79 39.37 39.10 35.94 34.52
53.06 50.51 52.84 54.27 56.57 55.80 45.38 32.77 34.56 36.20 40.00 39.40 39.82 36.94 36.03 37.22 36.23 34.24 33.88 36.11 38.34 38.47 35.34 32.63 32.97 37.04 37.70 39.56 41.78 34.55 32.06 38.00 30.39 17.21 22.06 29.09 32.17 37.09 37.88 37.76 38.31 38.17 36.31 33.21 33.86
45.24 45.80 48.34 54.12 56.40 52.46 42.56 35.72 36.22 40.76 41.38 41.45 37.05 38.59 34.26 35.12 34.36 33.20 32.52 36.17 37.11 40.16 40.15 37.66 31.01 33.96 34.74 38.69 36.94 35.60 38.23 30.44 28.54 19.77 18.83 26.49 28.05 32.89 34.00 36.95 39.04 38.43 34.99 33.84 33.24
43.78 41.48 46.72 54.34 54.83 47.07 38.08 39.43 40.63 42.38 42.85 39.85 38.91 38.04 36.50 35.60 35.43 32.72 34.06 36.57 39.69 38.05 41.83 39.60 36.65 30.37 33.88 33.19 33.54 33.28 32.22 33.15 33.90 28.99 23.69 20.71 28.53 35.35 39.06 38.54 38.44 38.85 36.62 34.78 33.23
44.24 36.74 46.44 54.58 42.49 41.71 38.91 42.22 42.98 42.00 43.85 42.71 42.53 40.03 38.19 37.40 36.22 34.07 33.80 37.34 40.76 40.03 36.48 39.60 37.90 27.30 30.97 34.21 34.12 34.05 33.57 33.38 28.32 25.88 27.14 26.43 32.62 37.83 37.57 38.02 38.59 38.68 37.06 35.54 34.87
39.26 37.82 45.51 50.61 34.59 35.84 39.81 42.25 43.51 42.23 42.13 41.69 40.72 41.31 40.91 39.12 36.33 36.08 35.79 40.04 41.46 40.45 37.35 40.17 34.82 25.61 28.57 32.42 32.30 31.90 34.93 38.22 34.39 29.97 27.28 26.28 32.86 34.66 34.61 36.27 37.56 37.89 35.75 34.90 34.10
38.08 31.62 37.53 41.66 42.77 38.41 36.21 36.94 39.56 44.70 43.29 43.87 42.68 42.97 40.74 39.46 40.92 37.45 37.41 40.15 41.34 41.13 43.08 43.24 37.09 33.07 30.79 31.68 34.34 29.99 31.88 34.60 36.72 31.98 31.58 32.51 36.09 34.18 36.46 36.76 37.80 36.37 35.18 33.85 34.01
35.83 34.51 35.15 33.38 34.36 36.43 37.28 39.44 36.83 37.05 43.14 44.01 41.34 41.43 40.31 37.62 39.09 38.59 39.72 38.57 39.80 41.40 41.35 41.42 34.87 34.68 37.86 36.76 35.93 33.87 32.59 34.75 33.77 36.11 33.27 37.10 35.58 40.35 40.80 37.85 38.72 37.90 35.55 33.46 33.30
33.59 33.93 36.30 33.32 35.76 36.43 36.16 34.18 34.49 36.50 38.82 39.64 39.86 41.51 41.62 38.67 39.32 37.37 40.00 40.01 39.80 39.05 39.21 39.87 35.33 36.77 34.57 37.34 34.87 32.90 33.51 35.22 35.79 36.58 36.89 37.56 37.35 40.61 40.53 38.94 36.61 37.64 35.87 34.22 34.39
38.58 40.24 38.39 34.27 32.73 30.81 33.23 36.18 34.32 37.09 39.20 40.06 38.46 40.29 39.50 41.51 44.15 44.85 44.43 43.83 43.34 40.96 38.69 39.00 36.74 34.71 32.24 35.79 32.87 30.73 35.15 34.40 34.92 37.48 36.86 33.39 38.88 39.40 40.73 40.07 38.63 37.28 36.65 36.68 36.45